GFSMW_850_thetae_042.txt.gz
Theta_e
326 326 324 325 325 325 324 324 324 326 325 323 321 320 318 314 311 311 311 311 310 310 310 309 307 304 303 302 302 301 301 300 301 301 300 300 301 304 303 301 300 299 299
328 328 328 329 328 328 327 325 327 323 319 319 317 316 313 312 311 311 311 311 310 310 308 305 303 302 301 301 301 300 301 300 300 301 300 299 299 299 301 300 299 299 298
329 329 329 330 328 327 327 326 321 313 315 316 314 313 312 312 312 311 311 310 310 308 307 305 302 299 301 301 301 301 300 300 299 300 299 299 298 298 298 298 297 297 297
326 325 322 324 324 324 322 319 318 316 312 313 315 315 315 315 313 312 310 309 309 307 304 301 300 301 302 302 301 300 300 299 299 298 298 298 298 297 296 296 296 295 295
322 319 318 318 317 315 317 316 315 316 314 314 315 315 315 313 311 310 310 307 305 303 301 301 301 302 302 301 301 300 299 298 298 298 297 296 296 295 295 295 294 294 294
320 317 317 317 317 315 315 316 316 315 314 315 314 313 312 311 310 308 307 305 304 303 302 302 302 301 301 300 299 299 298 298 297 297 296 295 295 294 294 294 293 293 293
319 318 318 317 317 317 317 316 316 316 315 314 312 310 310 308 306 305 304 303 302 302 302 302 301 300 299 298 298 298 297 297 296 296 295 295 294 294 293 293 293 292 292
318 318 318 318 317 317 317 316 316 315 313 310 309 307 306 305 304 304 303 303 302 302 301 301 300 298 297 297 297 297 297 296 295 295 295 294 293 293 292 292 290 290 290
319 319 319 318 318 318 317 316 315 313 309 308 306 304 303 301 303 301 302 302 302 300 297 297 296 295 296 296 296 296 296 296 295 294 294 293 292 291 291 290 290 290 290
319 319 319 318 317 316 315 314 312 310 307 305 303 303 302 302 300 300 301 299 297 296 295 295 295 295 295 296 296 295 295 294 294 293 292 291 291 291 290 289 289 289 289
319 319 318 316 315 313 312 310 308 306 305 303 303 302 302 300 299 298 296 296 295 295 294 294 294 295 295 295 294 295 294 293 293 292 291 291 290 290 289 289 288 288 288
318 317 315 313 311 310 309 308 305 305 303 302 301 300 299 298 297 296 295 295 295 294 294 294 294 294 295 293 292 293 293 292 292 291 290 290 289 289 288 288 287 287 287
315 314 312 311 310 309 307 305 304 305 302 300 299 299 297 296 296 296 295 295 294 294 293 294 294 294 294 293 292 292 292 291 290 290 290 289 288 288 287 287 286 286 285
314 312 311 310 308 306 305 304 306 302 300 298 297 297 296 296 296 295 295 294 294 293 293 293 293 294 293 293 292 291 290 290 290 289 288 287 286 286 285 284 284 284 284
313 312 311 309 308 305 303 304 301 299 297 297 296 296 296 295 295 295 294 294 293 293 292 292 292 291 291 290 290 290 290 290 288 287 286 285 283 282 282 281 282 282 282
313 311 310 308 306 303 302 300 299 297 297 296 295 295 296 295 294 294 293 293 293 292 292 291 291 290 290 289 289 288 288 287 286 285 284 283 282 282 281 281 280 280 281
312 310 308 305 303 301 299 298 297 297 295 294 294 294 293 293 293 293 292 292 292 292 290 290 289 289 289 289 288 287 286 285 284 283 283 283 282 282 282 281 280 282 282
311 309 305 302 301 299 298 299 297 295 293 293 293 293 293 293 293 292 292 292 292 290 290 289 289 288 288 288 287 286 285 284 284 283 282 282 282 281 280 280 280 281 282
310 307 303 302 298 299 298 297 296 293 292 293 293 293 293 292 292 292 291 291 289 289 289 288 288 288 287 287 286 285 284 284 283 283 282 281 281 280 278 278 279 280 281
307 303 300 299 297 297 299 296 294 293 293 293 292 292 292 292 291 291 290 290 290 289 288 288 288 287 287 286 285 284 283 283 283 283 282 281 280 278 278 278 279 279 280
302 299 297 298 298 299 295 293 293 292 292 290 290 292 291 291 291 290 290 289 289 289 287 287 287 286 286 285 284 283 283 282 282 282 282 281 279 277 278 277 277 278 277
297 297 300 298 299 295 293 292 292 292 290 289 290 291 291 291 290 290 289 289 289 288 287 286 286 286 285 284 283 283 282 282 281 280 281 279 277 277 278 277 276 276 277
300 299 297 296 295 292 290 290 292 290 289 289 289 291 291 290 289 289 289 288 288 287 286 286 285 285 285 284 284 283 282 282 281 280 279 280 278 277 277 277 276 277 277
297 298 297 294 292 290 290 290 290 289 289 289 290 290 290 290 289 289 288 288 287 287 286 285 285 285 285 284 284 283 282 281 281 280 279 279 279 277 277 277 277 277 275
297 296 293 291 290 290 290 289 289 289 289 289 290 290 290 289 289 289 288 287 287 286 286 285 284 284 284 284 284 282 282 281 281 280 279 279 279 278 278 278 277 277 276
294 294 294 290 290 290 289 290 289 289 289 289 289 290 289 289 288 288 288 287 286 285 285 284 283 282 283 283 282 282 282 281 281 280 280 280 279 278 278 278 277 277 276

GFSMW_850_thetae_045.txt.gz
Theta_e
327 328 329 329 328 331 332 331 328 325 326 325 319 321 321 317 313 313 311 311 311 311 310 310 308 307 306 305 304 304 303 303 302 302 302 302 302 301 303 303 303 302 301
329 330 331 331 332 332 330 330 326 326 327 325 323 320 318 316 315 314 313 312 311 310 308 309 307 306 305 304 304 304 303 302 301 301 301 301 301 301 301 301 301 300 299
330 331 332 332 331 329 328 329 329 326 324 320 319 318 317 316 314 314 313 312 310 309 308 307 306 304 303 303 303 303 302 301 301 301 300 300 300 300 299 299 298 298 298
331 332 332 332 331 331 329 328 324 321 319 318 317 317 316 316 316 315 314 312 309 308 307 305 304 304 304 303 303 302 302 301 301 300 300 299 299 298 298 297 297 297 296
330 329 329 329 327 326 324 321 320 319 319 318 318 318 317 317 315 313 313 311 309 307 305 304 304 303 303 302 302 301 301 300 299 299 299 298 298 298 297 296 296 296 295
327 324 323 322 322 323 321 320 320 319 318 318 318 317 317 314 313 312 311 309 307 305 304 304 303 303 302 301 300 299 299 299 299 299 298 298 297 296 296 295 295 295 294
323 321 320 319 319 320 320 320 319 318 318 318 318 316 314 312 310 309 307 305 304 304 304 304 302 301 300 299 298 298 298 298 298 298 297 297 296 295 295 295 294 294 293
322 320 320 319 319 320 320 319 319 319 318 317 315 313 310 309 307 306 305 305 304 303 303 302 300 298 297 297 297 297 298 298 298 297 297 296 295 295 294 293 293 292 292
322 320 320 320 320 320 320 320 319 317 316 314 312 309 308 306 305 305 304 304 304 302 299 298 297 297 296 296 296 297 297 297 297 296 295 295 294 294 293 292 292 291 291
321 321 321 321 321 320 321 320 318 316 313 311 309 308 305 304 304 304 303 302 299 298 297 296 296 296 296 296 296 296 296 296 296 295 295 294 293 293 292 292 291 291 290
322 322 321 321 321 320 319 319 317 314 310 308 306 304 305 304 303 302 300 298 297 297 296 296 295 295 295 295 296 296 295 295 295 294 294 293 293 292 291 291 290 289 289
322 322 322 321 320 318 317 315 313 310 308 306 307 304 304 302 301 299 298 297 297 296 296 295 295 295 295 295 295 294 294 294 294 293 292 292 291 291 290 289 289 289 288
322 322 321 320 318 316 315 313 310 308 307 309 304 302 301 300 299 298 298 297 296 296 295 295 295 295 295 295 294 293 293 292 292 292 291 291 290 289 288 288 287 287 286
322 321 319 317 316 314 313 310 308 307 306 304 301 300 300 299 298 297 297 296 296 295 295 295 294 294 293 293 293 293 292 291 291 291 290 289 288 287 286 284 284 284 285
321 319 317 316 314 312 310 307 306 304 303 301 300 299 298 298 298 297 296 296 295 295 295 294 294 293 292 292 291 291 291 290 290 288 288 287 286 284 283 283 283 283 283
319 318 317 315 313 310 307 306 304 303 300 299 298 297 297 297 297 296 295 295 294 294 294 294 293 291 291 291 290 289 289 288 288 287 286 286 285 284 283 283 282 281 281
318 317 316 314 312 309 306 304 302 300 299 299 297 296 296 296 295 295 294 294 294 294 293 292 291 291 291 289 289 288 287 287 287 286 286 285 284 284 284 283 281 282 281
317 316 314 312 309 306 303 302 300 300 298 296 295 295 295 295 294 294 294 294 293 293 292 291 290 290 290 289 288 287 286 286 286 286 285 284 284 283 282 281 280 281 282
316 315 313 309 305 302 300 300 300 298 296 295 294 294 294 294 294 294 293 293 293 292 290 290 290 289 289 289 288 287 285 286 286 285 284 284 283 282 281 278 279 280 281
314 312 308 304 302 300 300 299 299 297 295 294 294 294 293 293 293 293 293 292 292 290 290 289 289 289 289 288 287 286 284 284 285 285 284 284 283 282 278 278 278 279 280
312 308 304 301 300 299 300 297 295 294 294 294 293 293 293 293 293 293 292 292 291 290 289 289 288 288 288 287 286 285 284 283 284 283 283 283 282 280 278 278 278 278 276
306 302 300 299 299 298 295 294 294 294 294 293 293 292 292 293 293 292 292 292 290 289 289 288 288 287 286 286 285 284 284 283 282 282 283 282 280 280 278 278 278 277 278
301 299 298 297 296 295 293 294 294 293 292 291 292 292 292 293 292 292 291 290 289 289 288 288 287 287 286 287 286 285 284 283 283 282 281 281 281 280 280 279 278 278 279
299 298 297 296 295 293 294 292 291 290 291 291 292 292 292 292 291 291 291 289 289 288 288 288 287 287 286 286 286 285 284 283 282 282 282 281 281 281 280 280 280 279 279
297 295 294 295 295 293 291 291 292 291 291 291 291 291 291 291 291 291 290 289 288 288 287 287 287 286 285 285 285 285 284 283 283 282 281 281 282 282 281 281 280 280 279
295 295 294 293 293 292 292 292 292 291 291 291 291 291 291 291 291 290 289 289 288 288 287 286 286 285 284 283 283 283 283 282 282 282 281 282 282 281 281 281 280 280 279

GFSMW_850_thetae_048.txt.gz
Theta_e
324 326 326 326 326 331 333 331 329 327 325 324 324 323 319 320 319 314 311 311 312 311 310 311 309 308 307 305 305 304 304 303 302 302 301 301 301 301 301 302 301 301 301
327 329 329 328 328 330 333 331 329 327 326 327 324 321 321 317 314 314 312 313 312 311 309 309 308 307 306 303 303 303 303 302 302 301 301 302 301 301 301 300 299 299 298
329 330 331 331 331 333 333 330 328 326 326 326 322 319 317 316 316 315 313 313 311 310 309 308 307 306 303 303 303 303 303 302 301 300 302 301 300 299 299 299 298 297 297
329 331 332 333 332 331 330 327 328 326 326 322 319 318 317 316 316 315 315 314 312 310 308 307 305 304 304 303 303 302 301 301 301 301 300 299 299 299 298 298 297 296 296
329 332 332 332 330 329 327 329 329 324 321 319 318 317 317 317 316 316 314 313 312 310 308 305 305 304 304 303 302 301 300 299 299 300 299 299 299 298 297 297 296 295 295
331 331 331 330 331 329 329 325 322 320 320 319 318 318 318 317 315 314 313 311 309 307 305 305 304 304 303 302 301 300 299 298 298 298 298 298 298 297 296 296 295 295 294
330 329 329 328 327 325 322 321 320 320 320 319 319 319 318 316 313 312 310 308 306 305 304 304 304 303 301 300 298 297 297 297 298 298 297 298 297 296 296 295 295 294 293
327 325 325 323 323 323 322 321 320 319 319 319 319 317 315 312 310 308 307 307 305 305 304 303 302 299 298 297 297 296 296 296 297 298 297 296 296 295 295 294 294 293 292
325 322 321 320 321 321 321 321 320 319 319 318 317 314 311 309 308 307 306 305 304 304 301 299 297 297 297 296 296 296 296 297 297 297 296 296 294 294 294 293 293 292 292
325 322 321 320 320 321 321 321 320 319 318 316 314 311 309 308 306 305 304 304 303 299 298 297 297 296 296 296 296 296 296 296 296 295 295 294 293 294 293 293 292 291 291
325 323 322 321 321 321 321 321 320 318 316 314 311 309 307 306 305 304 303 300 299 298 297 297 296 296 295 295 295 296 296 295 292 293 294 293 293 292 292 291 290 290 290
324 323 322 322 322 322 321 321 320 317 314 310 309 306 307 304 303 302 300 298 298 298 297 296 296 295 295 295 295 296 295 293 293 294 293 292 291 291 290 290 289 288 288
324 323 323 322 322 322 320 319 318 315 311 309 308 306 304 303 302 300 298 298 298 297 296 296 295 295 294 295 294 292 293 293 293 292 291 291 290 289 288 288 288 287 285
323 323 323 323 322 321 318 317 314 311 309 308 305 303 302 301 300 299 298 298 297 296 296 295 295 294 294 293 293 293 292 292 291 291 290 289 288 287 287 286 285 283 283
321 322 323 322 320 319 316 315 312 308 307 304 303 301 299 299 299 298 298 297 296 295 295 295 294 294 294 292 292 292 291 290 290 289 288 288 287 286 285 284 284 283 283
320 321 321 320 318 317 314 312 308 306 305 302 300 299 299 297 298 298 297 295 295 295 294 294 294 294 291 291 291 290 290 289 287 287 287 287 286 285 284 284 284 283 282
317 320 319 319 317 315 312 309 307 305 301 300 300 298 297 297 296 295 295 295 295 294 294 294 294 291 291 290 290 289 289 288 286 287 287 286 285 285 284 284 283 281 280
317 318 318 317 315 312 309 307 304 301 300 300 297 296 295 295 295 295 295 294 294 294 293 293 292 291 290 290 289 289 288 287 286 287 286 285 285 285 283 282 281 279 280
317 317 317 315 312 309 306 303 301 301 299 296 295 295 294 294 294 294 294 294 294 293 293 292 290 289 289 290 289 289 288 287 285 286 285 285 284 283 283 282 279 279 280
316 315 314 310 307 304 301 300 299 298 297 295 295 295 294 294 294 294 293 293 293 292 292 291 290 289 289 288 289 288 287 286 284 284 284 284 284 283 283 281 279 279 279
314 312 307 304 302 301 300 299 299 296 295 295 294 292 293 293 293 293 293 293 292 292 292 291 289 289 288 287 288 287 287 286 284 284 283 283 283 283 281 280 279 279 278
306 304 302 301 300 298 296 295 294 295 295 294 293 292 292 292 293 293 293 292 292 292 291 289 289 288 288 287 287 286 286 285 284 284 283 282 282 281 281 281 280 279 279
301 300 299 297 296 297 294 294 294 294 294 293 290 290 291 292 292 292 292 292 291 291 289 289 288 288 287 287 286 286 286 285 284 283 282 282 282 281 281 281 280 280 279
299 298 298 298 296 295 295 296 294 293 291 290 290 290 291 292 292 291 292 291 291 290 289 289 288 288 287 287 286 286 285 286 285 283 283 283 282 282 282 281 281 280 280
298 296 297 299 297 295 294 293 293 292 291 291 291 291 291 291 291 291 291 291 290 290 289 289 288 287 287 287 286 285 285 286 285 284 283 282 282 282 282 281 281 281 280
299 298 296 295 294 293 293 292 292 292 292 291 291 290 290 290 290 291 291 290 289 289 289 289 289 288 287 286 286 285 283 284 284 283 282 282 282 282 282 281 281 281 280

GFSMW_850_thetae_051.txt.gz
Theta_e
322 324 328 329 328 329 329 329 328 328 325 323 322 323 324 324 321 318 314 310 310 310 310 310 309 308 307 306 303 302 302 301 302 302 301 299 301 300 301 301 300 300 299
322 322 324 329 331 331 330 330 329 327 326 324 324 324 321 320 318 316 311 311 311 310 310 309 309 308 307 305 301 300 301 302 301 300 299 301 299 300 299 298 298 298 298
325 326 326 329 332 332 332 331 330 327 325 326 324 321 319 317 315 312 312 312 311 311 310 310 308 307 305 302 302 301 301 301 299 300 300 300 300 299 298 298 298 297 296
326 327 328 328 331 332 332 330 329 328 325 326 324 318 316 314 313 315 315 314 313 313 310 309 307 305 304 304 303 302 301 301 300 300 298 298 298 299 298 298 297 297 296
326 328 329 330 331 332 331 330 329 325 327 325 320 317 316 316 315 316 315 314 313 310 309 307 305 304 304 304 303 303 301 301 299 298 298 298 298 297 298 297 297 296 294
328 330 331 332 331 331 331 328 326 325 324 320 319 318 317 317 316 315 314 313 311 310 309 306 305 304 304 304 303 298 298 296 296 297 298 298 298 297 297 296 296 295 295
330 331 332 332 329 326 327 329 328 326 321 319 318 317 318 317 316 314 313 312 310 307 305 305 304 304 303 302 296 296 296 295 295 296 297 298 297 296 296 296 296 295 294
331 331 331 330 328 326 328 328 324 321 320 319 319 319 318 317 314 312 310 309 308 306 307 305 304 304 300 297 296 296 296 295 296 296 298 297 296 296 295 295 294 294 293
329 328 330 329 329 327 322 321 320 320 320 319 319 319 318 317 314 311 309 307 306 305 304 303 302 299 296 295 295 295 295 295 296 296 296 295 295 295 294 294 293 293 292
327 325 327 326 325 324 322 321 320 320 319 319 318 318 317 314 309 307 307 307 304 303 303 300 297 296 295 295 295 295 295 296 296 296 295 292 294 294 293 292 292 291 291
326 323 323 322 321 321 321 321 320 320 319 319 318 317 314 311 309 307 305 303 302 301 299 297 297 296 295 295 295 295 295 295 295 293 291 293 293 292 292 291 290 290 289
326 324 322 320 320 320 321 321 321 320 319 317 315 313 310 308 307 304 302 302 300 298 298 297 296 295 294 295 294 294 293 292 292 292 293 292 292 291 290 290 289 288 288
326 325 323 321 321 321 321 321 321 319 316 314 312 309 308 305 303 302 301 299 298 298 298 296 295 294 295 294 294 294 292 292 292 292 291 290 290 289 288 288 287 287 286
326 325 323 322 321 321 321 321 320 319 315 311 309 306 304 303 301 300 299 298 298 297 297 295 294 294 294 294 294 293 291 292 291 291 290 289 288 288 287 287 286 285 284
325 324 323 322 322 322 320 318 318 316 312 310 306 305 301 299 300 299 298 298 297 297 295 295 294 294 294 294 294 291 291 291 290 290 289 288 288 287 287 285 285 284 284
318 321 322 323 322 320 319 317 315 312 309 305 304 301 299 300 299 298 298 296 296 295 295 295 293 294 294 294 292 290 290 290 289 288 287 287 287 286 285 285 284 284 283
317 320 321 321 320 318 317 315 311 308 306 304 301 300 300 297 297 295 295 294 294 294 294 294 294 293 293 291 290 290 289 289 288 287 286 286 286 285 285 284 284 282 281
316 317 318 318 317 315 313 310 307 305 303 300 300 298 296 295 295 295 293 294 294 294 294 294 293 293 292 290 289 289 289 289 288 287 286 286 286 284 284 284 283 282 280
316 317 316 315 312 310 308 306 303 301 300 297 296 295 295 295 295 293 294 294 294 293 293 293 292 292 292 290 289 288 289 289 288 287 285 285 284 284 284 283 283 281 280
315 313 311 309 307 304 304 302 299 298 296 296 295 297 298 294 293 293 293 293 293 293 293 292 292 292 291 289 288 287 288 288 287 286 285 284 284 283 283 283 281 281 279
309 308 307 304 301 301 300 299 298 297 295 299 300 297 294 293 293 293 292 292 293 293 292 292 292 291 288 288 288 287 287 286 286 285 284 283 283 283 283 282 281 280 280
304 304 303 300 299 299 299 296 297 300 300 296 297 294 293 291 291 291 291 292 292 292 292 291 291 289 288 288 288 287 287 286 286 286 284 284 283 282 282 281 281 281 280
302 300 300 299 298 299 300 301 300 298 295 294 293 292 290 290 290 291 291 291 291 291 291 291 290 289 288 288 287 287 287 286 287 285 285 284 283 282 281 281 281 281 280
300 300 299 300 301 300 297 295 293 293 292 291 291 290 290 290 290 290 290 290 291 291 291 290 290 289 288 288 287 287 286 286 285 285 285 284 283 283 282 282 281 281 281
301 301 299 296 295 294 294 293 293 292 292 292 291 291 291 290 290 290 290 290 290 291 291 290 289 289 289 288 288 287 287 286 285 284 284 283 283 283 282 282 282 281 281
299 295 295 294 293 293 292 292 292 292 292 292 292 292 291 291 291 290 290 290 291 291 290 290 289 288 288 288 288 288 287 286 285 284 284 283 283 282 282 282 282 281 281

GFSMW_850_thetae_054.txt.gz
Theta_e
325 325 324 325 325 325 319 317 318 322 324 327 325 323 322 320 322 320 318 314 311 309 309 310 309 309 308 307 304 301 300 298 298 298 297 298 299 297 299 301 297 297 298
323 324 325 325 325 327 325 324 324 324 326 325 323 322 322 323 323 319 314 311 310 310 310 310 309 308 307 305 303 302 300 299 299 299 298 298 297 299 297 297 297 297 297
325 326 326 326 326 327 328 329 328 327 326 324 322 323 324 321 318 315 312 311 311 311 312 311 309 308 306 305 303 303 302 302 300 299 299 298 298 298 297 297 297 297 297
324 326 328 328 328 328 329 330 330 329 327 326 324 324 321 319 318 317 312 313 314 313 313 310 308 306 305 305 304 304 303 302 299 298 296 296 297 298 298 297 297 296 297
322 323 325 326 329 329 330 330 330 329 327 325 325 321 320 319 316 313 315 315 314 313 310 309 308 306 305 304 304 303 303 299 295 294 295 295 296 298 298 297 296 295 296
322 325 326 327 329 329 330 331 330 329 328 326 325 323 317 314 315 315 315 315 314 311 310 310 308 306 305 304 303 303 298 294 293 294 294 295 297 298 297 296 296 295 295
325 326 328 328 329 330 331 330 329 327 326 327 324 319 318 316 316 316 315 315 313 311 310 308 305 305 303 302 300 297 294 294 294 294 295 295 296 297 296 296 295 294 293
325 327 328 329 330 331 331 329 328 324 326 323 319 319 317 317 316 315 314 313 310 305 304 305 306 304 303 301 297 294 293 293 294 295 295 296 296 295 295 295 295 294 293
327 328 329 330 331 330 327 327 326 326 325 319 318 318 317 316 314 311 308 306 306 305 305 304 302 301 301 296 294 293 292 293 294 295 296 296 295 293 293 294 294 293 292
330 330 331 331 329 327 326 328 325 324 322 319 318 318 318 318 316 314 311 307 308 306 305 301 302 299 296 294 292 292 293 294 295 295 295 294 293 292 293 293 292 292 291
329 329 329 329 328 328 326 324 322 321 320 319 319 319 317 316 311 307 307 307 305 306 300 299 298 297 295 293 292 292 293 293 293 291 291 292 293 293 292 291 290 290 289
328 327 327 326 327 326 325 323 322 321 320 320 319 317 314 312 312 310 307 307 301 300 299 298 298 296 295 293 293 293 294 294 293 291 292 292 292 291 291 290 289 288 287
327 327 325 325 324 324 323 322 321 320 319 319 317 315 313 311 309 308 305 302 299 298 298 298 296 296 293 293 294 294 294 294 292 291 291 291 290 290 289 288 287 287 286
327 326 324 323 322 322 322 322 321 321 319 316 314 313 311 309 308 304 300 299 299 298 297 296 296 294 294 293 294 294 294 292 291 291 291 290 289 288 288 287 287 285 284
326 326 324 322 320 320 320 321 321 320 318 316 313 311 309 305 300 300 299 299 298 297 297 295 294 295 294 293 294 294 292 290 290 290 289 289 289 287 287 286 285 284 284
321 324 324 322 321 320 321 321 320 317 314 311 310 307 303 300 300 300 300 297 296 296 295 294 294 294 294 294 293 292 290 290 289 289 288 287 287 286 286 286 285 284 284
319 320 321 321 321 321 321 320 317 312 308 306 304 300 299 300 299 297 296 297 296 294 294 294 293 294 293 293 292 292 290 289 289 289 288 288 287 286 286 285 284 284 283
318 321 322 322 321 320 318 314 309 306 304 302 300 298 298 297 297 299 297 295 294 294 293 293 293 293 293 292 292 291 289 288 288 289 288 288 286 285 285 284 284 283 282
315 316 318 318 316 313 310 308 305 302 300 298 296 296 298 300 298 296 295 293 293 293 293 293 293 293 292 292 291 290 288 288 287 288 288 287 286 285 284 284 283 283 281
314 314 313 312 310 306 305 303 300 299 297 295 296 298 300 296 294 293 292 292 293 293 292 292 292 292 291 291 290 288 288 287 287 287 287 286 284 284 284 283 283 282 281
309 308 307 306 304 301 301 300 297 297 298 300 301 297 296 294 293 291 291 291 291 291 291 292 292 291 291 290 289 288 288 287 287 286 286 285 284 284 283 283 282 281 281
304 303 303 300 299 299 299 299 300 301 301 298 296 296 294 292 291 290 290 290 290 290 291 291 291 291 291 290 289 288 288 287 287 286 286 286 285 284 283 282 281 281 281
301 300 300 299 299 299 300 300 300 298 296 293 292 291 290 290 290 290 289 290 290 290 290 290 291 291 290 290 289 288 287 287 287 286 286 286 285 284 283 282 282 282 281
299 299 300 300 299 296 295 294 293 292 291 291 291 291 291 291 290 290 290 290 290 290 290 290 290 290 290 290 288 288 288 287 287 286 286 285 284 285 283 283 283 282 281
299 298 296 295 294 293 293 292 292 292 291 292 292 292 292 292 292 291 291 291 290 290 290 290 290 290 290 289 289 288 288 288 288 286 286 285 284 284 284 283 283 282 281
295 295 294 293 292 292 292 292 292 292 292 292 292 291 291 290 290 291 291 291 291 291 291 290 290 290 289 289 288 287 287 287 287 287 286 285 284 283 283 282 282 282 282

GFSMW_850_thetae_057.txt.gz
Theta_e
327 324 326 327 328 329 328 327 326 325 324 326 327 327 327 326 321 318 318 318 317 314 310 309 309 309 309 308 305 303 301 301 301 299 296 297 298 296 298 299 296 295 295
329 324 326 328 327 328 327 323 321 321 322 325 326 326 325 322 319 319 319 317 313 310 310 310 310 310 309 307 305 303 303 302 302 301 297 296 295 297 297 296 296 296 296
325 324 326 326 326 326 324 319 314 315 322 326 327 326 321 320 322 322 320 316 311 310 310 312 311 309 307 306 306 305 304 303 302 299 295 295 296 295 295 296 297 297 296
322 324 325 324 325 325 325 325 320 321 324 327 328 325 321 322 323 322 318 314 310 312 312 312 310 308 307 306 305 304 303 303 300 296 294 294 294 296 297 297 297 295 294
322 324 324 324 325 324 325 326 324 325 327 327 326 323 322 324 322 318 315 311 312 312 312 310 308 307 305 305 304 304 303 300 296 294 294 293 293 294 296 297 296 296 295
320 322 323 324 325 325 325 326 327 328 328 328 327 326 324 321 319 317 313 313 313 312 310 308 306 305 305 304 303 302 299 297 293 293 293 293 294 295 295 296 296 295 295
320 322 325 325 325 325 326 327 328 328 329 328 327 325 323 319 316 314 314 314 314 313 309 307 305 307 304 304 303 302 297 294 292 292 292 293 294 296 296 295 294 294 293
320 321 323 324 326 327 327 328 328 329 329 328 326 325 324 318 316 316 316 315 314 311 307 306 308 304 305 301 300 296 294 292 292 293 294 294 295 296 295 294 294 294 293
320 321 322 323 325 327 328 329 328 327 327 325 326 326 321 318 317 316 316 314 312 310 308 307 304 302 299 299 296 294 293 292 293 293 293 293 292 292 292 292 294 293 292
323 323 324 325 327 327 329 328 328 327 324 325 325 322 319 319 317 317 316 314 310 307 307 305 302 298 298 297 295 294 292 292 292 293 292 291 291 291 292 292 292 292 291
326 326 325 325 327 329 330 328 326 325 324 325 322 319 318 317 317 314 312 311 310 309 306 305 302 298 297 296 295 293 292 292 293 293 293 291 291 292 292 291 291 290 289
327 328 328 328 329 330 329 327 326 326 325 325 320 318 317 315 313 312 310 309 308 307 305 300 298 297 296 296 294 292 292 293 294 293 293 291 291 291 290 290 289 288 287
329 329 329 329 327 327 328 326 327 326 324 323 319 318 317 312 311 309 309 309 307 300 299 298 296 296 296 295 294 292 292 293 293 292 291 291 291 290 290 289 288 287 287
327 328 328 328 328 328 327 326 324 322 321 320 318 318 315 312 311 310 308 304 300 299 298 297 297 296 295 294 293 293 293 293 292 290 290 290 290 289 289 288 287 286 285
324 326 325 326 326 327 326 322 320 319 319 318 317 315 311 310 309 305 300 299 299 298 299 297 296 295 294 293 293 293 293 292 291 289 289 289 289 288 287 287 286 285 285
322 325 325 324 322 323 323 321 320 319 318 317 315 311 308 306 302 299 301 298 297 300 296 296 295 294 293 293 293 293 292 291 291 289 289 288 288 287 287 286 286 285 284
318 319 321 322 321 320 319 320 320 318 316 312 310 307 303 300 300 299 299 301 300 297 296 294 294 293 293 292 292 292 291 291 290 288 288 288 288 288 287 286 285 285 284
319 319 320 320 320 320 319 319 316 313 310 307 303 300 298 298 297 299 301 299 295 294 294 293 292 292 292 292 292 291 291 290 288 288 287 287 288 288 286 285 284 284 284
317 319 320 320 319 318 316 315 311 307 303 300 297 296 297 298 299 300 297 295 293 292 292 292 292 291 292 292 291 291 291 289 288 288 287 286 287 287 286 284 284 284 283
313 315 315 316 314 312 310 308 304 301 298 297 297 298 298 300 296 294 293 291 290 290 290 290 290 291 291 291 291 291 290 289 288 288 287 286 286 286 285 283 283 283 282
311 310 309 309 307 304 303 302 298 297 297 298 299 301 297 296 294 293 291 290 290 290 290 290 290 290 290 290 291 290 290 289 288 287 287 286 286 286 285 284 283 283 282
304 304 303 301 299 299 300 299 300 300 301 301 298 296 294 292 290 290 289 289 289 289 289 289 289 289 289 290 291 290 290 289 288 287 287 286 286 285 285 284 283 282 282
301 300 301 299 299 300 300 299 298 297 294 292 291 291 290 290 291 291 290 290 290 290 290 290 290 289 289 289 290 290 290 289 288 287 287 286 286 285 286 284 284 282 282
299 299 299 299 299 296 294 294 293 292 291 291 291 291 291 291 291 291 291 291 291 291 291 291 291 291 290 289 290 290 289 289 288 287 287 287 286 286 285 284 284 283 283
299 299 299 296 294 293 292 292 292 291 291 291 291 291 291 291 291 290 290 290 290 290 290 290 290 290 290 290 291 290 289 288 288 288 288 287 287 286 285 285 284 284 283
295 294 293 293 292 292 292 292 292 291 291 291 290 289 288 288 288 287 286 285 284 284 285 285 285 286 287 289 290 290 290 289 288 287 287 286 287 286 286 285 283 283 283

GFSMW_850_thetae_060.txt.gz
Theta_e
327 324 322 323 322 324 328 329 328 327 325 324 325 326 325 326 327 327 324 319 319 320 321 318 310 309 309 308 307 305 303 302 302 302 300 297 297 295 295 297 294 294 295
328 328 326 325 322 324 327 327 328 327 325 324 323 324 325 326 327 325 319 318 318 318 315 310 309 309 309 307 306 304 304 304 303 301 299 296 296 295 294 294 295 295 295
327 328 326 325 324 325 325 326 326 326 326 323 324 325 326 326 324 321 319 320 317 314 310 310 310 309 308 306 305 304 304 304 303 301 297 295 294 293 294 294 295 296 295
330 325 323 323 325 325 326 327 327 326 325 324 323 324 326 326 324 321 321 319 314 311 311 310 309 308 307 305 305 306 304 303 302 300 294 293 293 294 295 295 296 296 295
330 324 322 322 323 325 325 326 326 325 321 321 322 324 327 325 321 321 321 316 312 311 311 310 309 308 307 305 304 303 303 303 302 295 293 292 293 294 294 295 295 296 295
329 329 322 322 323 325 325 325 325 324 320 319 321 325 326 322 320 322 321 315 312 312 312 310 309 307 305 305 304 304 303 300 296 293 292 293 293 294 294 295 295 295 294
326 329 323 321 322 324 324 324 324 324 323 322 324 327 325 321 322 321 318 315 312 312 313 311 309 308 306 307 303 303 299 296 293 292 292 292 293 294 295 295 295 294 293
323 326 323 321 322 323 323 324 324 325 325 324 325 326 324 325 323 318 316 314 313 313 313 310 308 305 307 305 304 304 295 294 293 292 292 292 292 291 291 292 292 292 292
321 321 322 321 321 322 323 324 325 325 326 326 326 326 327 325 323 317 315 315 315 315 313 313 309 308 308 305 304 296 295 294 292 292 292 292 291 291 290 291 292 292 291
320 321 321 320 320 321 323 325 326 326 327 327 327 327 325 324 323 319 317 316 315 313 312 309 309 308 306 302 298 296 295 293 292 292 293 293 292 291 290 291 291 292 291
322 322 321 320 320 322 323 324 326 327 328 328 326 324 324 324 321 320 320 316 314 313 311 310 309 306 301 297 296 295 293 292 292 293 293 292 291 290 290 290 290 290 290
323 324 324 323 322 322 324 326 328 329 327 325 324 323 323 322 320 320 319 314 313 309 311 307 304 302 296 296 296 294 293 292 292 292 292 290 289 290 290 290 290 289 288
324 326 326 326 326 326 326 327 327 325 326 325 324 323 324 322 320 316 313 312 308 310 306 299 298 297 296 296 295 294 293 293 293 292 291 290 289 289 290 290 289 289 287
324 326 326 327 328 327 328 326 325 325 325 325 325 323 317 314 311 309 310 308 305 299 299 300 297 296 296 295 294 293 292 292 292 291 290 289 289 289 289 289 288 288 286
319 325 327 328 329 329 328 326 326 326 325 324 323 316 311 309 313 308 306 302 303 300 297 297 298 296 296 294 293 292 292 292 291 291 290 289 288 288 288 288 287 286 286
321 321 324 324 324 325 326 325 324 322 319 318 316 311 310 311 307 305 304 300 298 297 301 300 298 296 294 293 292 292 292 292 291 290 290 288 288 288 288 287 287 286 286
318 319 321 322 321 320 320 321 320 318 317 314 312 311 308 305 301 299 298 296 299 300 300 296 294 294 294 292 292 292 292 291 291 290 289 288 288 287 287 287 287 286 285
318 318 318 319 319 319 318 317 316 315 313 311 308 304 301 299 297 298 299 300 300 298 295 294 293 292 291 291 291 292 292 291 290 290 289 288 287 287 286 287 287 286 285
316 317 317 318 319 318 316 315 313 311 309 304 301 298 297 297 298 299 300 296 294 293 292 291 291 290 290 290 291 291 291 291 291 290 289 288 287 287 286 287 286 285 284
314 315 315 316 315 313 312 311 308 304 301 298 297 298 299 301 299 295 294 293 292 290 290 289 289 289 289 289 290 290 290 291 290 290 289 288 287 287 286 286 285 284 284
311 311 310 311 309 307 306 305 300 298 297 298 300 301 298 295 295 293 291 290 289 289 289 289 289 289 289 289 289 289 290 290 290 290 289 289 287 287 286 286 285 285 284
306 305 305 302 300 300 301 298 298 299 300 300 296 294 292 291 290 290 290 290 290 290 290 290 290 290 290 290 290 289 289 289 290 290 289 289 287 287 286 286 285 285 284
302 301 300 298 298 298 299 300 299 296 295 292 291 291 291 291 291 291 291 291 290 290 290 289 289 289 289 289 289 289 290 290 290 290 289 289 288 287 286 286 285 285 284
299 299 299 298 298 297 297 296 294 292 291 291 291 291 291 290 290 290 289 288 287 286 285 284 284 284 284 284 284 285 286 288 290 289 289 288 288 287 287 286 286 286 285
298 298 298 299 298 295 293 292 292 291 291 291 290 290 288 287 287 286 285 284 283 282 281 281 282 283 283 282 283 284 285 287 287 289 289 288 288 288 287 287 286 286 285
298 299 297 296 293 292 292 291 291 290 289 288 288 287 286 285 284 284 283 283 282 281 281 281 282 282 282 283 283 283 283 286 287 288 287 288 287 287 287 286 287 286 285

GFSMW_850_thetae_063.txt.gz
Theta_e
327 324 322 323 323 324 326 327 324 324 320 317 317 321 321 322 325 324 325 325 324 321 322 323 322 320 310 308 308 307 306 305 304 303 301 299 298 297 296 295 297 294 294
328 327 324 321 322 323 326 327 326 326 324 321 318 322 324 325 325 325 325 324 320 320 322 321 318 310 309 309 307 306 306 304 303 301 301 299 299 296 294 293 294 294 294
327 328 325 322 323 321 322 325 326 327 327 325 323 324 324 325 325 325 325 322 319 319 319 316 310 309 309 308 307 306 304 303 302 302 299 298 297 295 295 293 293 294 295
328 327 327 327 325 324 322 322 326 327 327 327 326 324 324 324 324 324 324 320 319 319 317 311 310 309 310 308 305 304 304 302 302 303 297 294 293 296 296 296 294 293 295
328 327 322 324 324 325 324 324 326 327 327 327 326 325 324 323 324 325 322 319 319 318 314 311 310 310 309 307 306 304 304 304 301 298 294 293 292 292 294 295 296 296 296
328 328 328 323 322 323 324 325 325 326 326 326 326 324 324 322 324 324 321 319 320 317 312 311 310 310 309 307 306 306 307 305 303 301 293 292 293 295 296 296 296 295 295
327 328 328 329 324 322 322 323 325 326 326 326 325 323 322 324 325 323 320 321 320 316 312 311 311 310 309 307 305 308 307 306 305 295 293 292 292 292 293 295 295 294 293
323 326 327 327 328 323 321 322 323 325 324 324 324 324 322 322 325 324 320 322 320 317 314 312 311 309 307 305 307 307 306 303 296 294 292 291 292 291 291 292 293 293 293
319 322 324 326 327 328 322 321 321 323 323 324 324 324 323 323 325 323 322 320 318 315 313 311 310 306 307 306 308 304 303 297 295 293 292 292 292 292 292 291 291 293 293
320 319 320 321 324 326 323 321 322 322 323 324 324 324 325 325 325 322 323 318 316 314 312 311 310 309 308 307 304 303 297 296 294 292 292 292 293 292 290 290 291 292 292
322 322 321 320 320 320 320 320 321 322 324 324 324 325 325 325 325 324 322 320 316 314 313 314 310 309 307 301 301 297 296 294 293 292 292 292 292 290 289 290 291 291 291
322 322 323 322 321 321 320 321 322 324 325 326 326 326 323 323 323 322 322 320 316 313 313 310 308 304 301 303 297 296 295 294 293 293 293 292 291 290 289 290 290 290 290
322 323 323 324 324 324 323 323 324 325 326 324 324 324 322 322 322 321 320 317 312 310 306 306 300 300 301 297 296 295 294 293 293 292 292 291 290 289 290 290 290 290 289
320 323 325 325 325 325 325 325 326 326 325 324 324 324 323 321 320 318 314 310 309 306 305 304 302 301 299 296 295 294 294 293 292 292 292 291 290 289 289 289 289 289 288
316 318 324 326 327 327 327 327 326 326 325 324 322 321 320 316 313 310 311 307 306 305 303 301 301 301 299 297 295 294 293 292 292 292 291 291 290 289 288 288 288 288 287
319 319 321 323 323 325 325 325 325 324 322 322 320 318 314 309 309 309 307 306 302 300 300 300 299 299 297 295 294 293 293 292 292 291 291 290 290 289 288 288 288 287 287
319 320 321 321 321 321 321 321 321 320 317 315 314 310 308 308 307 304 301 299 298 300 300 299 297 294 294 294 293 292 292 292 292 291 291 291 290 289 288 288 287 287 287
317 317 318 318 318 318 318 317 316 314 313 310 309 308 307 304 300 299 299 301 300 298 295 294 293 293 292 291 291 290 291 291 291 291 291 291 290 289 288 288 287 286 286
316 316 316 317 317 316 315 314 312 312 310 308 305 301 299 299 299 301 300 299 294 293 293 291 290 290 289 289 289 289 290 290 290 290 291 291 290 290 289 288 287 286 286
314 314 315 314 314 312 312 312 310 307 303 300 299 298 299 301 300 297 295 294 292 290 289 289 289 289 289 290 290 290 290 289 289 289 289 290 290 290 289 288 287 287 286
311 311 312 312 310 308 308 306 302 301 299 298 299 301 299 296 295 293 291 290 290 290 290 290 290 290 290 289 289 289 290 290 290 290 290 289 289 290 290 288 287 287 286
307 307 308 305 303 303 304 300 299 299 299 301 299 296 294 292 291 291 290 290 290 290 289 288 287 285 284 284 283 283 283 284 285 287 288 289 290 289 290 288 287 287 286
304 303 303 299 298 298 298 299 300 301 297 295 293 291 291 291 291 290 290 288 286 285 284 283 283 283 283 283 283 284 284 284 284 284 285 286 288 289 289 289 287 286 287
300 299 299 298 298 298 299 301 297 294 292 291 291 291 290 289 288 286 285 284 283 283 282 282 283 282 282 282 282 282 282 283 283 283 284 286 286 287 287 288 288 287 286
298 298 299 299 298 298 297 294 292 291 291 290 289 288 287 286 285 284 283 282 282 281 281 282 281 281 281 280 279 280 281 283 283 284 284 285 287 287 287 287 288 287 287
297 298 299 299 296 293 292 291 291 289 288 287 287 286 285 284 283 283 282 282 280 279 279 278 278 278 278 278 278 280 281 284 285 285 286 286 287 287 286 287 287 287 287

GFSMW_850_thetae_066.txt.gz
Theta_e
327 327 327 328 325 325 326 326 327 328 326 324 322 321 322 324 324 325 324 321 321 323 323 323 323 321 318 316 308 308 307 308 308 307 307 305 304 303 302 302 300 300 299
329 326 326 327 327 328 327 327 329 329 327 326 323 321 320 323 325 320 323 323 323 324 323 322 322 320 318 311 309 308 308 308 307 306 306 307 306 304 303 302 300 300 299
330 329 326 326 327 327 327 328 330 329 328 327 323 323 324 325 324 323 324 323 324 322 321 322 321 320 313 309 309 309 309 308 306 306 305 303 306 302 301 300 300 299 300
330 329 329 328 328 327 326 328 330 329 328 327 326 324 324 325 325 324 323 324 324 321 320 321 320 314 309 309 310 309 308 307 305 305 306 300 298 299 300 300 300 299 299
330 328 328 328 328 328 327 326 328 329 329 328 328 326 326 326 327 323 323 324 323 320 320 319 317 311 309 309 309 308 307 307 308 307 304 299 300 299 299 300 300 298 298
330 330 329 328 328 329 329 327 327 327 328 327 327 327 327 327 325 324 323 324 322 319 319 317 314 311 310 309 310 309 308 308 307 306 305 300 299 298 298 298 298 297 297
330 330 330 330 328 329 329 325 325 327 327 326 327 326 326 326 324 322 324 324 323 319 318 317 314 311 310 309 309 308 307 309 307 306 300 298 298 298 297 297 297 296 296
325 328 330 330 331 329 327 323 323 325 325 325 326 326 325 323 322 323 324 324 324 319 319 318 313 311 310 309 308 308 306 307 304 299 299 298 297 297 296 296 295 295 295
324 325 328 330 330 330 329 322 322 327 328 324 325 323 324 320 321 324 323 323 322 319 319 319 313 311 309 308 307 308 306 302 299 299 298 297 296 296 296 295 295 295 295
322 322 323 326 327 329 329 329 328 327 327 326 324 323 324 324 324 323 322 324 322 320 319 315 312 311 309 308 306 306 302 300 298 298 297 297 296 296 295 295 294 294 294
325 323 322 322 324 326 327 328 328 327 327 327 324 323 323 324 324 324 324 324 321 320 315 309 309 309 310 305 304 301 302 297 298 297 296 296 296 295 295 294 294 294 294
324 326 325 325 325 325 326 326 326 326 326 327 326 324 324 324 324 322 322 323 321 319 317 311 309 307 304 301 302 302 298 298 297 297 296 296 295 295 294 294 294 293 293
324 326 326 328 328 327 327 327 327 327 327 326 325 325 325 324 323 321 322 321 317 311 311 310 307 305 303 302 302 299 298 298 297 296 296 295 295 294 294 293 293 293 292
322 325 327 327 328 329 328 326 325 325 326 326 326 325 325 323 322 321 319 315 312 310 309 306 304 304 303 301 300 298 297 297 296 296 295 295 294 293 293 293 292 292 291
318 321 326 328 328 328 326 325 325 326 326 325 324 322 321 320 319 316 314 311 309 306 306 304 303 302 301 301 300 298 298 297 296 296 295 294 294 292 291 291 291 291 291
321 321 323 326 325 324 323 324 323 322 321 321 320 319 317 315 312 311 309 307 306 305 303 303 302 301 300 298 295 295 295 296 295 295 294 294 293 293 291 290 290 289 289
320 321 321 321 320 322 321 320 320 319 317 317 316 314 312 310 308 308 307 305 303 303 302 300 297 297 298 296 293 293 293 293 294 294 294 294 293 292 292 291 290 289 288
316 316 316 316 316 316 317 316 313 312 313 312 311 309 308 307 306 304 303 303 301 300 299 298 296 295 294 292 290 290 290 292 293 293 293 293 293 293 292 292 291 290 290
312 312 312 312 312 311 310 310 311 313 312 309 308 307 306 304 302 303 302 300 299 297 296 294 293 293 292 290 289 290 290 291 292 292 292 292 292 291 291 291 290 290 290
309 309 310 310 310 308 308 311 309 308 307 304 302 301 300 302 302 299 297 296 294 293 292 291 290 291 291 292 290 289 289 289 290 290 291 290 291 291 290 290 290 290 289
307 307 307 307 307 306 306 305 303 302 301 300 300 300 301 298 297 295 293 292 292 291 290 290 289 288 287 286 285 284 283 285 286 286 286 287 287 288 288 290 289 289 289
304 304 304 304 304 304 304 302 301 299 299 299 301 299 296 294 292 291 291 291 290 289 287 286 285 287 287 286 285 284 283 283 283 284 285 285 286 285 285 286 288 288 289
303 302 302 301 301 300 300 298 297 299 300 297 295 293 291 291 291 290 288 287 286 286 286 286 286 286 285 285 284 283 280 281 281 281 282 283 283 284 284 285 286 288 287
301 300 299 298 297 297 297 299 299 296 294 292 291 291 290 289 288 286 286 285 284 284 284 285 285 284 283 283 281 279 280 280 280 281 282 284 285 285 285 286 287 287 287
299 298 297 296 296 298 299 298 295 293 292 291 290 288 287 286 285 284 284 283 283 282 281 282 281 281 280 279 277 277 278 278 279 281 283 285 285 286 287 287 287 287 287
297 296 295 297 298 298 296 293 292 291 289 288 287 286 285 284 283 283 283 282 281 280 279 279 278 278 278 277 277 277 277 277 279 281 282 284 286 287 287 287 287 287 287

GFSMW_850_thetae_069.txt.gz
Theta_e
327 327 326 325 322 321 322 324 326 327 327 326 325 322 321 321 323 325 324 325 325 325 323 323 322 322 319 318 316 316 310 311 311 311 312 311 309 308 307 306 305 304 303
327 328 328 325 325 325 326 326 326 327 327 326 324 322 321 322 323 325 324 327 323 321 321 323 321 322 319 317 317 312 312 312 311 311 311 312 310 308 307 306 305 304 303
328 327 327 328 326 326 327 327 327 326 327 327 325 323 323 323 324 326 325 326 322 323 323 323 321 320 318 316 314 311 312 312 311 309 310 309 310 308 307 306 303 303 302
328 328 326 327 328 328 329 329 328 328 329 327 327 324 323 323 325 326 325 325 324 323 323 322 321 320 319 315 313 312 312 312 312 309 309 309 306 306 306 305 303 302 302
329 328 329 327 327 328 328 329 329 330 329 329 328 326 325 325 326 327 326 326 323 324 324 322 319 319 320 314 313 312 312 311 308 309 307 307 305 305 304 303 304 303 302
328 327 327 328 328 328 329 329 329 329 329 330 330 329 327 326 326 327 327 326 324 322 324 322 320 318 317 313 313 312 310 309 308 310 308 306 305 304 303 302 302 301 300
329 329 327 327 327 329 330 330 329 329 330 330 330 330 330 329 328 328 325 325 323 322 323 323 320 318 314 312 312 310 309 308 308 308 307 304 303 302 301 300 300 300 299
325 329 329 328 327 328 330 331 330 330 329 330 331 332 331 331 329 328 326 323 322 322 323 323 319 315 313 312 311 309 307 306 307 307 305 302 301 301 300 299 299 298 297
325 326 328 330 330 330 329 331 332 331 330 330 332 332 331 331 329 325 325 323 323 322 323 321 317 313 312 310 310 308 307 309 307 305 305 301 300 299 299 299 298 297 297
325 326 326 328 330 331 332 331 332 330 330 331 331 331 331 328 326 324 321 323 323 323 321 316 316 312 310 309 308 308 310 307 303 304 301 301 300 299 298 298 297 297 296
325 325 325 327 329 331 332 333 332 332 330 330 331 330 330 327 325 324 324 323 323 322 318 315 312 311 310 308 309 308 305 304 304 303 300 299 299 298 298 297 297 296 296
323 326 326 325 325 328 330 331 332 332 331 330 330 329 328 328 326 326 323 322 322 319 318 315 311 309 308 309 308 305 304 304 303 300 299 299 299 298 297 297 296 296 295
322 324 326 327 327 327 328 329 330 329 329 329 329 328 327 326 325 326 324 322 320 317 315 311 311 310 308 305 304 304 303 301 300 300 299 299 298 297 297 296 295 295 295
322 323 326 327 329 329 329 329 330 329 329 328 328 327 326 325 324 323 320 320 317 313 312 310 309 306 304 304 304 302 301 300 299 299 299 298 297 297 296 296 295 294 294
320 322 325 327 329 331 331 329 328 327 326 326 326 324 324 322 321 320 318 315 312 311 309 306 305 304 304 304 302 300 300 299 299 299 298 297 297 296 295 295 294 293 292
322 321 324 329 330 330 329 324 323 324 324 324 321 321 320 319 317 315 313 311 310 307 305 304 304 303 302 300 298 296 296 297 297 297 297 296 296 296 295 295 294 294 293
323 323 325 328 327 326 322 319 320 321 320 319 318 316 316 315 313 311 310 308 306 305 304 302 300 298 299 299 297 294 293 292 294 295 295 295 295 295 294 294 294 294 293
322 323 324 323 322 322 319 316 314 315 314 313 311 312 312 309 309 308 306 305 303 302 301 301 300 298 297 296 294 291 290 290 293 293 293 294 293 293 293 293 293 293 293
320 320 320 319 318 317 316 315 313 312 310 307 306 305 308 308 305 304 303 302 301 301 299 297 296 295 295 294 293 291 290 291 291 292 292 292 292 292 292 291 291 291 291
316 316 316 315 314 313 312 311 310 309 306 304 306 306 304 303 302 302 302 300 298 297 295 294 294 294 293 294 292 290 288 286 286 286 287 287 286 286 287 287 287 288 288
314 314 314 313 312 311 310 309 308 306 304 303 303 302 303 301 300 298 297 296 295 295 294 291 291 290 290 289 288 286 285 284 284 283 283 283 283 283 284 285 286 286 286
311 312 312 311 310 310 309 307 306 304 302 301 300 299 297 296 296 296 295 294 293 292 291 289 289 289 289 288 286 285 284 282 281 281 281 281 281 281 282 283 283 283 284
310 309 309 309 308 308 307 305 302 300 299 299 297 296 294 293 292 292 291 290 289 289 289 288 288 288 288 287 285 285 281 280 280 280 280 280 280 283 285 286 285 286 285
308 308 307 306 305 303 302 301 299 298 297 296 294 292 291 290 289 288 288 288 288 288 286 287 287 286 285 284 283 280 279 279 279 279 279 280 283 285 286 287 287 288 287
306 305 304 303 301 300 298 297 296 295 294 292 290 290 289 288 287 287 287 285 285 284 283 284 282 282 281 281 279 278 278 278 278 278 280 282 281 283 283 286 287 288 288
304 302 301 299 297 296 294 294 293 292 290 289 288 288 287 286 286 286 286 284 283 282 281 281 280 279 279 278 278 278 278 278 278 278 280 280 280 280 281 282 284 287 288

GFSMW_850_thetae_072.txt.gz
Theta_e
328 326 325 324 321 318 317 316 316 319 322 321 323 323 322 320 322 321 322 322 321 324 321 324 324 323 321 321 320 316 314 311 311 311 310 312 311 310 308 308 306 305 304
327 327 324 322 318 317 320 322 323 324 324 322 322 321 319 319 321 323 324 323 324 324 324 324 323 322 321 319 318 318 315 311 311 311 313 312 311 310 310 307 306 306 305
327 327 325 322 321 320 321 324 325 326 323 324 325 323 322 321 322 324 325 322 323 328 324 321 323 323 321 319 319 318 315 312 313 311 311 311 311 310 309 308 307 305 304
327 327 327 326 323 323 324 325 326 328 327 326 326 324 323 322 323 324 325 324 322 327 325 322 323 322 321 319 319 319 317 312 313 312 311 310 309 309 307 307 306 304 303
326 328 327 328 325 325 327 326 326 327 326 325 328 325 323 322 322 323 326 326 323 327 326 324 324 322 321 320 318 318 316 312 313 312 311 309 308 307 305 305 304 304 304
328 328 328 327 329 328 327 329 328 328 327 329 326 328 326 324 325 327 326 326 325 322 324 323 323 323 321 320 318 314 313 312 312 311 309 310 308 307 306 304 303 302 302
330 329 329 327 327 328 328 329 329 328 329 330 330 327 328 326 326 326 326 326 326 325 321 320 323 323 321 320 316 313 313 312 311 308 308 309 308 304 303 302 301 301 300
329 328 328 330 328 327 329 328 329 328 329 329 331 330 327 329 328 326 328 326 326 325 324 322 322 322 321 318 316 313 313 312 310 307 309 310 308 305 301 301 300 300 299
325 328 329 327 329 329 329 329 329 329 329 330 330 331 331 329 329 329 329 327 326 324 324 322 322 321 316 315 313 313 312 311 307 307 310 308 306 305 302 300 299 299 298
325 326 327 329 328 328 329 329 330 331 330 330 330 330 331 331 330 330 328 325 325 325 322 322 321 319 316 314 314 312 311 309 306 308 308 306 306 302 300 299 299 298 298
325 325 326 327 330 330 329 329 330 331 332 331 331 330 332 331 330 330 327 326 324 323 321 321 320 317 315 313 312 309 309 308 306 306 305 305 302 300 300 299 298 298 297
323 325 325 325 327 330 332 332 331 332 332 331 331 331 332 329 329 328 327 324 324 322 319 319 318 316 314 312 311 310 308 307 305 305 304 301 300 300 299 298 298 297 297
321 324 326 326 325 327 330 331 333 333 333 332 331 330 331 329 327 326 325 323 321 319 318 317 315 312 311 310 309 308 305 305 304 302 300 300 299 299 299 298 298 297 296
321 322 325 326 327 327 328 329 331 331 332 331 330 330 330 328 325 323 322 321 320 318 317 315 311 311 310 308 306 305 304 302 300 300 300 299 299 299 298 297 297 296 296
321 321 322 327 329 329 329 329 330 330 330 329 329 328 327 326 323 321 320 319 318 315 313 311 309 308 306 305 304 303 301 300 300 299 299 299 299 298 297 297 296 296 295
323 322 321 328 331 332 331 330 329 329 328 328 327 326 325 323 320 319 318 316 313 311 310 308 306 306 305 304 302 300 298 298 299 298 297 296 297 297 296 295 295 295 295
324 323 323 331 331 331 330 329 326 325 324 324 324 323 320 319 317 315 312 311 310 309 307 305 304 302 299 299 299 297 295 293 292 291 290 291 293 294 294 294 294 294 294
324 324 328 329 328 327 326 323 320 320 320 320 319 318 317 314 312 311 310 309 307 305 304 302 301 300 299 298 297 295 294 292 290 290 292 293 293 293 293 293 293 293 292
323 325 325 325 323 323 321 318 316 315 314 314 313 311 310 310 309 308 307 305 303 302 301 300 298 297 296 295 294 293 292 291 291 289 288 287 286 286 285 285 285 285 285
321 322 322 321 320 318 316 314 312 310 309 308 307 307 309 309 307 304 303 302 301 300 298 296 295 294 294 294 292 291 290 288 286 285 285 284 283 283 283 281 281 281 281
319 319 318 317 317 315 314 313 311 308 306 306 307 307 305 304 303 302 301 299 297 296 295 294 292 292 292 290 289 288 287 286 285 284 283 283 282 282 281 281 283 284 285
316 316 315 314 313 312 311 310 308 306 305 304 304 303 302 301 300 299 296 295 295 294 293 291 290 289 289 289 288 287 286 284 282 282 281 281 281 281 281 283 285 286 286
315 314 314 312 311 311 310 308 306 305 303 301 300 299 298 296 296 296 294 292 291 290 290 290 288 288 289 288 287 286 284 282 281 281 280 280 280 281 281 282 283 285 287
313 312 311 311 310 309 308 306 303 301 300 299 297 296 294 293 291 290 289 290 289 289 289 287 287 287 287 286 284 283 281 280 280 280 280 279 280 281 280 280 282 283 284
311 310 310 309 307 306 304 301 300 300 298 296 294 292 291 290 289 289 289 288 288 286 285 285 284 283 282 282 281 280 280 279 279 279 279 279 280 279 279 279 279 281 283
309 308 307 305 302 300 299 298 297 296 294 292 290 290 289 288 288 287 287 286 285 284 284 282 281 281 280 280 279 279 279 278 278 278 279 279 279 278 278 277 277 278 280

GFSMW_850_thetae_075.txt.gz
Theta_e
322 321 322 322 321 321 320 319 318 317 315 314 313 312 314 315 318 321 320 320 319 314 319 320 322 323 322 322 321 320 318 315 311 310 309 309 311 312 311 310 310 307 306
325 324 322 322 321 317 316 315 314 314 314 314 315 315 316 317 320 321 321 322 322 320 318 318 323 323 323 322 321 320 318 316 313 312 311 311 312 312 311 310 308 307 306
326 325 322 320 318 316 316 318 319 319 318 316 318 321 322 321 320 322 322 322 322 320 319 320 323 324 323 322 321 320 319 318 316 313 310 312 312 311 311 310 308 307 306
326 325 323 318 316 317 319 321 322 322 321 320 321 321 321 321 319 318 321 321 323 322 321 321 323 323 323 322 321 319 319 318 317 313 312 311 311 310 309 308 308 307 306
326 324 324 324 318 318 320 322 323 325 324 321 322 324 323 322 321 321 322 324 325 324 323 320 322 323 322 322 320 319 319 318 315 313 312 312 310 309 309 308 307 305 304
327 327 326 325 323 322 321 324 323 324 327 326 325 326 325 322 321 323 322 323 324 325 324 322 322 323 323 323 322 321 319 318 315 313 313 312 310 309 308 306 306 304 304
327 327 327 325 325 325 324 325 326 326 327 326 326 326 327 324 322 321 322 323 323 325 325 324 322 323 322 323 322 320 318 316 314 313 312 310 309 309 309 309 306 304 304
327 328 327 327 327 327 327 326 326 326 326 327 327 326 327 326 324 323 324 326 326 325 324 324 322 321 320 322 322 320 318 314 313 313 312 310 308 309 309 308 307 302 301
328 326 328 328 328 327 327 327 327 328 328 326 328 329 328 327 327 324 325 326 326 326 325 324 324 323 321 321 321 319 316 314 313 312 311 309 306 308 307 306 305 301 299
327 329 328 328 328 328 327 327 327 327 327 327 327 329 330 328 327 327 327 326 325 325 325 324 324 321 321 321 319 317 316 314 313 311 309 307 307 307 306 305 301 300 299
323 323 326 328 329 328 328 327 327 328 328 328 327 329 330 330 329 329 329 329 326 325 325 324 321 321 321 320 318 316 314 313 311 310 308 307 306 305 304 301 300 300 299
324 323 322 325 328 329 329 328 328 328 327 327 329 328 329 330 328 329 329 326 325 326 325 321 321 319 319 317 316 315 313 311 310 308 307 306 304 302 300 300 299 299 298
324 324 323 320 325 328 329 329 329 329 329 327 330 330 330 330 328 327 326 326 326 324 322 320 318 317 316 315 314 312 310 309 308 306 305 302 300 300 299 299 299 298 298
321 324 324 323 320 327 330 330 332 331 331 331 330 330 329 329 328 327 327 325 323 323 321 319 317 316 313 312 311 310 309 307 305 303 301 300 299 299 299 299 298 297 297
321 321 324 325 325 324 324 330 333 332 331 331 330 330 330 329 327 327 325 324 322 320 319 317 314 312 311 310 309 307 305 303 302 300 299 299 299 298 298 297 296 295 295
320 321 324 326 327 327 325 326 329 330 330 330 329 329 327 327 326 323 322 321 319 317 315 313 311 310 308 307 306 304 303 301 300 299 299 299 299 298 297 296 295 294 294
321 321 325 328 328 329 328 328 328 329 329 328 326 325 324 323 321 320 319 317 315 312 311 309 308 306 305 303 301 299 297 296 295 293 292 291 290 291 291 292 292 293 293
321 323 325 329 330 330 330 329 328 327 326 325 324 322 321 320 318 317 315 313 312 310 309 306 303 300 300 299 299 298 296 295 293 292 291 290 290 290 289 288 286 285 285
323 324 328 330 330 330 328 326 324 322 321 321 320 319 319 317 315 313 311 310 308 306 304 301 301 300 299 298 297 296 294 294 292 291 289 287 286 285 284 284 284 284 284
322 324 326 327 327 326 324 322 319 319 318 317 316 314 313 312 310 309 308 306 304 302 301 300 298 297 297 296 295 294 293 291 288 287 285 284 284 283 282 282 282 282 282
322 323 324 324 323 321 319 317 316 314 313 312 311 310 309 309 308 306 304 302 301 301 299 298 297 296 295 294 292 291 289 287 286 285 284 283 283 282 281 281 281 282 282
320 321 322 321 319 317 315 312 311 308 308 307 307 308 306 304 303 302 301 300 299 299 298 296 294 293 290 289 288 288 287 286 284 283 282 282 282 281 280 281 280 280 280
318 319 318 317 316 314 313 312 310 308 306 305 304 303 303 303 302 300 299 297 296 296 295 293 290 289 289 288 288 288 287 284 283 281 281 281 280 280 280 280 279 279 279
317 316 315 314 312 312 311 310 307 305 304 303 301 300 299 298 297 297 295 294 292 291 290 290 289 288 288 288 287 286 284 282 281 281 280 280 279 279 279 279 278 278 277
315 314 312 311 310 310 307 306 304 303 301 299 298 297 296 294 293 292 291 290 290 289 289 288 287 286 286 285 283 281 281 280 280 279 279 279 279 279 278 278 277 277 277
312 311 310 308 304 304 302 301 300 300 299 296 294 292 291 290 289 289 288 288 286 285 284 284 283 282 281 281 280 280 280 279 279 278 278 278 278 278 277 277 276 275 275

GFSMW_850_thetae_078.txt.gz
Theta_e
321 322 322 322 321 321 321 321 322 321 321 318 315 317 321 314 314 314 318 316 316 315 314 316 321 324 322 321 321 321 320 319 316 313 310 310 310 308 311 311 311 310 309
321 321 322 322 321 321 320 320 321 322 322 321 318 318 320 316 314 314 315 315 312 312 313 317 321 320 322 322 322 321 321 319 316 313 310 310 309 308 311 311 311 310 308
321 319 322 321 321 320 320 319 318 318 318 318 316 315 314 314 314 314 314 314 314 320 320 316 316 318 320 323 323 322 321 320 317 314 312 311 310 311 312 312 311 310 308
323 319 319 318 317 316 315 315 315 316 315 314 313 313 314 314 316 318 319 320 320 321 321 320 319 318 320 321 323 322 322 320 317 315 312 311 312 311 311 311 311 310 308
326 323 319 317 317 316 316 316 315 313 314 314 314 315 315 316 318 319 319 320 321 320 320 320 319 319 320 321 322 322 322 320 318 319 317 314 311 310 310 309 309 309 308
326 325 324 319 317 317 318 318 319 320 318 315 316 319 320 319 317 316 318 318 318 320 320 323 322 321 320 321 322 323 322 319 320 319 318 314 311 312 311 309 309 308 309
326 326 325 323 318 317 317 319 320 322 322 321 320 319 319 318 320 319 319 319 319 321 322 324 324 324 323 320 322 323 322 320 320 319 313 312 312 313 311 309 308 309 308
326 326 325 325 324 320 319 319 321 323 324 325 325 322 323 323 324 323 322 321 321 321 321 322 324 324 324 322 323 323 321 320 320 318 314 314 313 313 310 309 308 307 307
326 326 326 325 326 325 323 322 321 323 324 324 325 326 326 324 324 326 324 322 321 321 322 323 324 324 323 323 323 321 321 321 319 316 315 314 313 312 309 308 307 307 303
326 326 326 326 326 326 326 324 323 321 323 325 326 326 326 326 326 325 326 323 322 322 323 323 325 324 324 323 321 321 320 320 319 317 315 313 312 309 308 307 307 305 303
326 326 326 327 327 327 326 326 325 325 324 325 326 326 326 326 328 327 326 325 324 325 325 324 324 324 323 321 320 320 319 318 317 316 314 311 309 307 306 306 305 302 301
324 325 327 327 327 327 327 327 326 326 326 326 326 326 326 327 327 328 327 326 326 321 318 318 324 323 321 320 320 319 316 316 314 313 310 309 307 306 305 304 301 300 300
322 322 324 325 326 327 327 327 327 327 327 328 328 329 329 328 328 327 327 327 324 320 318 324 323 321 319 318 318 316 315 312 311 310 308 307 305 303 302 300 299 299 299
324 323 323 323 321 321 326 328 327 327 327 327 327 328 329 327 328 328 327 327 326 323 324 323 322 319 317 316 316 315 312 310 309 307 306 303 301 300 299 299 299 298 298
323 324 324 323 323 323 326 328 328 328 328 328 328 328 327 329 330 329 328 326 325 324 322 321 319 317 316 316 314 311 310 309 306 304 302 300 300 299 298 298 297 297 297
319 320 321 324 325 323 322 324 328 329 330 330 330 329 330 330 328 326 325 325 322 321 320 319 318 316 314 312 310 309 308 306 304 302 301 299 298 297 297 297 297 296 294
320 320 320 320 324 325 325 325 327 330 331 331 329 329 326 325 326 325 323 321 319 318 318 316 314 312 310 309 307 306 304 303 302 299 297 298 297 295 293 291 291 291 291
321 321 320 322 325 326 326 327 329 329 328 327 326 324 324 324 322 321 320 319 318 317 315 312 310 309 307 306 305 303 300 298 296 295 293 292 291 290 290 289 287 286 285
321 321 322 324 326 327 327 327 326 326 325 325 324 323 322 322 321 319 318 316 314 312 310 308 307 305 303 301 300 299 298 296 295 293 293 291 289 287 285 284 284 284 284
320 319 321 325 328 328 328 327 326 325 322 320 320 320 319 318 317 315 314 312 310 308 306 304 302 301 300 299 298 296 295 294 293 292 288 286 285 284 283 283 282 282 282
319 321 323 325 328 328 327 324 322 320 318 317 316 315 314 313 312 310 309 308 307 305 303 302 301 299 297 296 296 295 294 292 289 287 285 284 283 282 282 282 281 281 281
322 323 323 324 324 323 321 319 317 316 314 312 311 310 310 309 309 308 306 304 303 302 301 299 297 295 295 294 294 292 290 288 287 285 284 282 281 281 280 280 280 280 280
322 322 322 321 320 319 317 315 313 311 308 307 306 307 307 305 304 303 302 301 301 299 297 295 295 294 293 291 289 289 288 287 286 283 281 280 280 280 279 279 279 279 279
320 320 319 318 317 316 315 313 311 309 307 307 305 304 303 303 302 300 298 297 295 295 294 293 291 290 289 289 288 287 287 286 282 280 280 279 279 279 279 279 278 278 277
318 317 316 314 311 311 310 309 308 307 305 303 300 299 299 297 296 295 293 292 292 290 290 289 289 288 288 287 287 286 283 280 280 279 279 279 279 279 278 278 277 276 276
314 314 312 311 309 308 307 305 304 304 303 301 297 295 294 293 292 291 290 289 288 287 288 287 285 284 283 282 281 281 280 280 279 278 278 278 278 277 277 276 276 275 274

GFSMW_850_thetae_081.txt.gz
Theta_e
319 322 321 319 321 321 322 322 321 322 319 317 316 321 319 317 315 319 319 317 318 317 315 319 321 319 317 319 320 321 321 320 319 316 312 311 310 310 309 309 311 311 310
318 321 321 322 321 322 323 321 322 322 320 317 317 320 318 316 320 317 315 315 315 316 320 322 321 318 318 320 321 321 321 320 320 318 314 310 311 311 310 309 310 311 311
319 322 321 322 321 321 320 320 321 321 320 318 317 318 317 316 318 314 315 316 316 317 316 316 316 317 319 320 321 322 322 321 320 319 316 311 311 313 311 310 309 310 310
321 319 322 321 321 321 320 320 320 320 320 319 313 312 314 319 315 314 314 317 316 315 314 316 317 317 316 317 320 322 322 322 321 319 316 313 314 313 311 311 310 309 309
323 321 319 318 317 320 320 319 319 320 321 321 319 317 317 319 315 314 314 315 314 314 314 316 319 320 320 318 319 320 322 322 321 321 318 315 314 311 311 311 310 310 310
324 324 320 317 316 316 314 314 316 317 318 319 319 319 318 318 318 315 314 314 314 314 313 316 319 319 319 321 320 320 320 321 322 322 320 318 317 313 310 311 311 311 311
325 325 324 319 317 316 315 314 313 314 316 315 315 315 315 314 314 314 315 315 314 314 314 316 318 318 321 322 321 321 321 321 322 322 321 319 319 316 313 314 312 312 310
326 326 326 324 319 317 316 317 317 316 314 313 314 315 315 315 315 316 316 314 313 313 313 313 316 319 321 323 323 323 322 322 321 321 321 318 319 316 314 313 313 311 309
326 326 326 326 323 319 317 317 317 318 318 318 317 317 317 317 318 318 318 318 318 318 319 319 320 320 321 323 323 323 323 322 321 320 320 319 317 315 314 313 312 309 308
325 325 326 326 326 324 321 318 317 317 318 320 321 321 321 320 320 320 321 322 323 323 323 322 322 322 322 322 323 323 322 322 321 320 320 318 317 314 313 312 310 308 307
325 326 326 326 326 325 325 323 321 319 319 320 322 323 324 325 325 325 325 325 324 325 325 324 323 322 323 321 321 322 322 321 320 320 317 317 315 313 311 309 308 307 306
324 325 326 327 326 326 325 325 325 324 322 321 321 321 323 324 325 325 325 326 326 327 324 324 323 319 319 319 320 323 320 319 320 316 316 314 313 311 309 307 306 306 304
325 325 326 326 326 325 326 326 326 326 326 326 324 322 322 323 324 325 326 326 326 326 325 324 320 317 317 318 322 320 320 319 318 315 314 312 309 308 307 305 303 301 300
323 325 325 325 324 325 325 325 326 326 326 326 326 326 325 325 325 325 326 326 327 327 326 325 322 319 320 323 321 319 318 317 315 313 311 308 306 305 303 302 301 300 299
320 322 322 323 323 324 324 324 324 325 326 327 327 326 326 327 328 328 327 327 328 327 326 325 322 322 323 321 319 317 316 315 311 310 308 306 305 303 301 300 299 298 297
320 321 322 323 322 322 321 323 323 325 326 326 326 327 327 327 328 327 323 326 325 326 324 323 323 322 320 318 317 315 313 311 309 307 306 303 302 301 299 298 297 296 296
320 320 323 323 322 323 322 322 322 324 326 326 327 327 327 327 327 326 325 325 323 323 323 321 321 320 318 316 313 311 309 308 306 304 302 301 300 299 298 298 297 294 291
320 321 321 320 321 323 324 324 324 326 327 328 328 329 327 325 324 323 323 322 321 321 319 319 319 316 314 312 310 308 306 304 303 301 300 297 295 293 292 291 290 289 286
319 320 320 320 320 322 324 326 327 328 329 329 326 324 323 324 324 323 321 320 319 318 317 315 313 311 309 307 306 305 304 301 299 297 295 294 293 292 289 286 285 284 283
320 320 321 321 322 323 325 325 326 326 325 323 322 322 320 320 320 319 318 317 315 314 312 310 308 306 305 303 301 300 299 299 297 295 293 292 288 286 284 283 283 283 283
321 321 320 320 323 325 325 325 325 325 322 319 317 317 317 317 316 315 314 312 311 309 307 306 304 301 301 300 299 298 296 294 293 292 289 286 284 283 282 282 282 281 281
321 320 321 325 326 326 326 325 323 319 317 315 315 314 313 312 312 311 310 308 307 305 304 303 302 300 299 297 295 294 293 292 289 288 287 285 282 281 281 280 280 280 279
322 324 325 325 324 322 320 319 316 313 312 311 310 310 309 308 307 306 306 305 303 302 302 301 299 297 295 294 293 291 290 288 287 287 285 282 281 280 280 279 279 279 279
323 323 322 321 319 317 315 313 312 309 307 306 306 306 306 305 304 302 302 301 300 297 296 295 294 294 292 290 289 288 287 287 286 285 281 280 280 279 279 279 279 278 278
321 320 320 318 315 313 312 310 310 309 309 307 306 304 303 303 302 300 297 295 294 293 292 290 289 289 288 288 287 287 286 284 281 281 281 280 279 278 278 278 277 277 276
317 317 316 315 311 311 309 308 307 306 306 305 301 300 298 295 294 294 293 292 291 289 288 288 288 288 285 284 283 282 282 282 281 280 278 278 277 277 277 276 276 275 275

GFSMW_850_thetae_084.txt.gz
Theta_e
319 321 321 321 322 323 323 322 323 323 322 320 319 317 317 317 316 315 316 318 320 317 316 316 316 316 316 318 319 319 320 320 320 319 317 316 315 313 310 309 309 310 311
318 321 322 320 321 321 322 322 322 322 323 321 319 316 314 319 320 321 319 318 317 316 316 316 316 316 317 318 319 320 320 321 320 319 318 315 315 315 313 311 310 309 310
319 320 321 320 320 321 321 320 320 321 321 320 318 320 317 317 321 319 316 318 318 318 318 320 320 318 320 321 321 320 320 321 321 320 318 314 315 317 316 314 313 312 309
319 319 318 320 321 320 321 319 319 321 321 320 318 317 317 316 320 318 317 320 318 317 318 318 315 315 317 317 317 320 320 321 322 321 319 318 317 315 315 316 314 313 311
322 321 320 318 319 320 320 321 321 321 321 320 318 318 319 315 315 316 320 319 318 316 316 315 314 315 316 317 319 316 317 320 321 321 321 320 318 316 314 314 314 312 313
325 322 322 318 317 319 320 320 319 320 320 320 320 319 319 317 316 316 318 315 314 315 315 315 315 314 315 318 319 320 321 321 320 320 321 321 319 319 318 314 314 312 312
325 324 324 320 317 317 318 318 319 319 320 320 320 318 316 317 316 315 315 314 314 314 315 316 315 314 314 318 320 320 321 322 321 320 321 321 321 319 317 315 315 314 313
324 325 324 323 318 317 316 315 315 317 318 319 320 320 320 318 317 317 318 315 314 314 314 315 314 314 315 316 317 320 321 322 323 322 321 321 320 321 319 317 315 313 313
325 325 325 325 322 317 316 315 315 314 314 315 316 317 318 318 318 317 317 318 316 314 314 314 314 314 315 318 318 318 319 321 323 323 322 321 321 320 319 317 316 313 311
324 325 325 326 325 323 318 316 315 316 316 314 314 314 314 314 314 314 314 314 314 315 315 316 317 319 320 321 321 322 322 321 319 321 320 322 321 319 318 316 313 311 311
324 324 325 325 325 325 324 321 318 316 316 317 316 316 316 316 315 315 316 317 317 318 319 320 321 323 324 321 321 322 322 320 318 316 321 321 320 319 315 314 312 311 309
322 323 324 325 325 325 326 325 322 320 318 317 317 317 317 319 320 321 322 322 323 324 324 324 324 325 322 319 321 321 322 320 318 318 319 320 319 316 314 312 312 310 308
322 323 324 324 324 325 325 325 325 325 323 320 320 319 318 318 320 321 322 323 323 324 324 324 325 325 319 322 320 320 318 318 319 320 320 318 315 314 313 311 308 306 305
320 322 323 324 324 324 324 324 324 324 324 324 324 323 323 322 322 322 321 322 322 323 324 325 325 324 324 324 321 317 318 319 320 319 318 315 314 312 311 309 307 305 302
319 322 323 322 322 323 323 322 322 324 324 324 325 325 325 324 324 324 323 323 323 324 325 325 323 323 322 323 320 319 318 319 319 317 315 313 311 310 308 305 304 301 300
319 320 321 321 321 321 321 322 322 323 324 324 324 325 325 325 325 325 325 326 325 325 323 323 324 324 323 322 321 322 319 318 317 315 313 310 308 306 305 303 301 299 298
321 320 319 320 321 321 322 323 322 323 324 325 325 325 325 325 325 326 326 326 325 323 323 323 322 320 320 320 319 319 317 316 313 309 307 307 304 303 300 299 298 297 296
321 320 319 320 322 322 322 323 323 323 324 325 325 325 325 325 325 325 323 322 322 322 322 322 321 320 319 318 317 316 312 310 307 306 304 301 300 299 297 294 292 291 290
320 320 319 319 320 322 322 323 323 324 324 325 325 324 324 323 323 322 322 322 321 320 320 318 317 314 312 310 310 310 308 305 304 302 300 297 296 294 292 291 288 286 285
318 318 318 319 320 320 322 324 325 325 325 324 323 321 321 321 321 320 321 320 318 316 314 313 311 309 309 305 304 303 302 301 299 297 296 294 293 290 288 285 284 283 283
317 317 318 320 320 322 323 324 324 322 321 321 320 318 316 316 316 315 314 314 313 312 311 310 307 306 304 303 301 300 298 297 296 294 293 291 289 287 285 284 282 282 281
320 321 322 322 323 323 323 323 320 318 317 315 314 314 314 313 312 311 310 309 309 308 307 305 305 303 302 300 299 298 296 294 293 291 289 288 287 285 282 281 280 280 280
322 323 323 322 321 323 323 322 316 314 313 312 312 311 311 310 309 308 308 307 305 305 304 303 302 301 299 296 294 293 292 291 289 288 287 286 284 281 280 280 280 280 279
320 321 323 322 319 318 316 315 312 310 309 308 307 307 307 307 306 305 304 303 302 301 300 299 297 295 293 292 291 290 289 288 287 286 285 283 281 282 282 280 279 279 278
319 319 319 317 313 313 312 311 310 309 308 307 306 305 305 304 303 302 300 298 296 293 293 292 291 291 290 289 288 288 287 286 284 282 282 283 281 280 278 278 278 277 276
316 318 315 313 310 311 310 308 306 306 307 306 303 301 300 298 297 296 294 292 293 292 292 290 289 288 288 287 286 284 283 282 281 281 280 279 279 278 277 277 276 276 275

GFSMW_850_thetae_087.txt.gz
Theta_e
321 321 321 321 322 323 323 324 324 324 323 322 321 321 319 318 319 318 316 321 316 317 316 317 317 318 318 319 319 319 319 320 320 317 317 317 316 315 313 309 309 309 310
320 320 320 320 321 322 322 323 323 323 322 322 320 320 319 320 320 318 315 319 318 318 316 316 316 317 317 317 318 318 319 320 320 318 318 316 316 318 317 315 312 310 309
321 320 322 321 320 321 322 322 322 323 322 321 320 319 316 319 318 318 318 316 316 315 315 316 316 316 315 316 316 317 319 320 320 320 319 318 317 318 318 318 316 314 312
323 320 320 319 319 320 320 321 321 321 322 322 321 321 316 317 317 316 316 317 316 316 317 316 316 315 315 318 320 319 321 321 321 321 321 321 320 318 317 317 317 316 316
324 320 320 318 320 320 320 319 320 320 321 321 321 320 316 316 317 317 316 317 318 317 316 315 316 318 320 320 317 317 320 318 321 320 321 321 320 320 318 316 316 316 315
323 323 321 319 318 319 319 320 319 320 320 321 320 318 316 316 318 320 319 317 316 318 318 319 319 318 315 315 316 317 319 320 320 320 320 321 320 320 320 319 318 318 317
323 324 321 322 318 318 319 320 319 320 321 320 320 319 318 317 317 316 320 317 316 318 319 319 318 315 314 315 314 314 316 319 320 321 321 321 321 321 321 320 318 317 317
323 324 324 323 319 317 317 317 318 319 320 321 321 320 318 318 315 315 316 315 315 320 318 317 316 315 315 315 315 314 314 318 320 321 321 321 321 321 321 320 319 315 315
322 323 325 324 323 317 316 316 316 317 318 319 320 321 320 319 319 317 315 316 316 319 317 315 314 314 314 315 314 315 317 319 319 319 319 320 318 316 320 321 320 318 314
323 323 324 325 325 323 317 316 315 315 315 317 319 320 320 319 318 318 318 317 316 316 315 315 314 314 314 314 316 318 318 321 321 321 322 321 318 316 318 318 319 318 316
323 323 324 325 325 325 323 318 316 315 315 315 315 315 316 317 318 318 317 317 317 317 317 316 315 315 315 316 318 317 318 321 320 320 322 320 319 316 317 319 318 315 314
322 323 323 324 324 325 325 324 319 317 316 315 315 315 315 314 314 314 314 314 314 314 314 314 314 316 317 320 322 322 317 318 321 319 321 320 318 316 318 317 317 314 313
319 321 323 323 324 324 325 325 325 323 319 318 317 316 316 315 315 315 315 316 318 319 319 319 320 322 323 324 323 318 318 319 322 320 321 319 319 319 318 317 314 313 311
317 320 322 322 323 323 324 324 325 325 324 322 319 318 319 319 317 317 317 318 319 320 320 321 321 322 323 323 323 319 320 322 322 318 317 318 320 319 316 314 312 311 309
320 318 319 321 322 323 323 323 324 324 324 324 324 323 320 319 318 318 318 318 319 320 320 321 322 323 323 323 322 322 322 323 321 317 316 317 317 314 315 311 310 308 305
321 321 319 320 321 320 321 321 322 323 324 323 323 323 323 322 322 321 320 320 321 322 323 324 324 323 322 322 321 322 321 321 319 318 316 313 314 311 308 308 307 305 303
320 321 322 321 321 320 321 321 322 323 323 323 323 323 323 323 323 323 322 323 323 324 324 323 322 323 322 321 320 319 318 318 317 313 311 312 307 306 304 303 301 300 298
318 319 320 321 320 319 321 322 322 323 323 323 323 324 324 324 324 323 323 323 323 322 322 322 322 321 319 318 319 318 315 312 310 309 307 305 304 301 299 299 297 295 293
319 319 319 320 319 318 320 321 322 322 323 323 324 323 323 323 323 322 322 321 321 321 319 319 317 316 314 312 310 309 309 307 305 303 301 300 299 298 297 294 293 290 288
316 318 318 318 316 318 320 322 322 323 322 322 323 322 320 320 321 320 320 320 319 317 316 314 311 308 308 305 304 304 304 304 302 300 298 298 296 294 291 289 285 283 283
315 314 316 316 318 319 321 322 321 322 322 322 321 321 319 319 318 317 316 316 315 312 311 309 307 305 304 303 301 301 300 299 298 297 295 293 291 288 287 286 284 283 282
316 317 318 318 317 318 321 320 321 319 318 319 318 316 314 314 314 313 312 311 309 308 306 306 304 303 301 300 299 298 296 294 293 291 290 289 288 288 287 286 284 281 280
315 316 317 318 318 319 320 319 316 314 313 312 311 311 311 310 309 308 307 306 305 304 304 303 301 299 295 293 292 291 291 292 292 291 289 288 287 285 283 281 281 282 281
316 313 315 316 315 316 315 313 311 310 310 309 308 308 307 306 304 304 303 302 301 300 298 296 294 292 291 291 291 291 290 289 288 287 286 285 284 282 281 281 279 279 278
312 314 316 313 311 311 311 309 309 309 308 307 305 305 304 303 301 300 298 298 295 294 294 293 292 291 290 289 288 287 286 285 284 283 282 281 281 280 279 278 277 277 276
312 314 312 311 310 310 309 307 307 307 307 305 303 301 299 298 297 296 294 293 292 292 291 290 289 288 287 286 285 283 282 281 281 280 279 277 277 277 276 275 274 274 273

GFSMW_850_thetae_090.txt.gz
Theta_e
327 325 324 321 321 324 324 325 325 324 324 326 326 325 323 320 319 319 317 315 315 316 317 318 317 319 319 319 319 320 320 319 318 316 313 313 314 312 312 311 311 311 313
326 325 324 321 322 324 324 323 324 324 324 324 325 325 323 319 318 318 318 315 316 316 317 317 318 318 318 318 319 319 320 319 320 317 319 319 316 315 317 315 314 313 311
327 325 324 323 322 323 323 324 323 325 323 322 323 323 321 320 321 320 319 315 314 314 316 316 317 317 318 318 318 318 319 320 320 320 320 321 320 321 317 317 315 315 315
327 325 324 322 321 321 322 322 323 323 323 322 322 321 321 320 318 319 316 317 315 318 317 317 317 317 316 317 317 317 317 319 321 319 320 320 320 321 321 318 318 318 317
327 325 325 322 321 322 321 322 322 323 323 322 321 320 320 322 319 317 315 317 319 317 316 317 316 316 316 316 317 316 318 320 321 321 321 319 319 320 320 320 320 316 317
327 326 325 323 322 322 322 320 320 322 322 322 321 320 320 319 319 319 315 315 317 316 316 315 316 316 316 316 316 318 320 320 318 319 321 321 320 320 319 319 320 320 319
327 327 325 324 322 320 320 320 320 320 321 322 322 321 321 319 320 318 317 318 317 316 316 316 316 317 316 318 320 319 316 317 318 318 318 320 321 322 321 321 319 320 319
327 327 326 325 323 321 319 319 319 321 321 321 322 321 322 320 321 319 319 317 317 318 318 318 317 316 320 319 319 316 317 319 319 319 317 319 320 321 321 321 320 317 315
327 327 327 326 325 322 321 319 319 320 321 320 320 321 321 322 321 320 321 321 320 320 319 319 318 319 319 319 316 318 319 319 319 316 318 320 321 321 320 321 320 316 316
327 327 328 327 326 324 321 318 318 319 321 321 321 321 321 321 321 320 320 320 320 319 319 318 317 319 319 318 319 319 319 316 316 319 319 317 318 320 320 319 318 318 318
327 327 327 328 327 326 323 318 316 317 318 321 321 321 322 321 320 321 320 319 319 319 318 318 317 318 319 319 319 319 316 315 317 315 314 313 315 319 320 320 319 316 316
327 327 327 327 327 327 325 323 318 316 316 320 321 320 321 321 321 321 321 321 320 320 320 320 319 319 320 320 319 315 315 315 315 317 317 319 319 320 319 319 319 317 316
324 326 327 327 327 327 327 325 324 320 317 317 317 318 317 317 318 319 319 319 319 320 320 320 320 319 319 319 315 315 318 321 323 322 317 318 319 319 319 319 319 317 317
322 325 326 327 327 327 327 326 326 324 322 319 318 317 316 316 316 315 316 317 316 316 316 315 316 317 318 319 320 321 322 324 323 321 319 320 320 319 318 319 318 316 313
319 323 325 326 327 327 327 326 326 325 324 323 321 319 318 317 317 316 316 316 316 316 316 318 320 321 321 321 321 323 323 323 322 322 319 320 318 317 318 316 313 313 313
322 321 321 324 326 325 323 323 323 324 324 324 323 322 321 320 319 318 318 318 319 320 320 321 321 321 322 323 323 322 323 322 321 320 318 318 316 315 314 310 310 308 306
320 320 321 320 323 321 323 326 323 323 323 323 323 323 323 322 321 321 321 321 320 320 320 321 323 323 323 323 323 323 321 318 317 316 313 311 310 307 305 307 304 304 302
319 319 320 321 320 319 322 323 324 323 323 323 323 323 323 322 322 321 320 320 321 322 322 323 322 322 321 321 321 320 318 315 312 309 306 304 304 301 301 300 299 298 297
318 318 319 319 320 320 318 320 322 322 323 323 323 323 323 323 323 322 323 322 322 322 321 320 320 318 316 315 313 311 309 309 306 304 302 301 300 297 298 297 296 294 293
316 317 318 317 317 317 318 319 321 321 322 322 322 322 322 323 323 322 321 321 320 318 317 316 314 311 309 306 305 304 304 304 303 300 299 297 296 296 296 293 292 290 287
318 316 317 318 319 318 318 319 320 321 321 321 322 322 321 321 320 319 318 317 315 314 312 309 306 305 303 302 301 300 300 299 298 296 295 293 293 293 293 292 290 288 287
316 316 316 315 316 317 318 318 319 319 320 320 319 318 317 316 315 314 313 312 310 308 306 304 302 300 299 297 297 295 294 293 293 293 292 291 290 289 288 287 285 283 281
315 314 314 315 315 316 319 320 316 316 315 315 314 313 312 311 310 310 309 307 305 305 302 300 299 296 294 293 292 293 292 292 291 290 289 288 287 286 283 282 282 281 280
311 314 316 315 312 315 315 315 313 313 312 310 309 307 308 306 307 306 303 302 301 300 298 296 294 293 292 291 291 290 289 289 287 286 284 283 282 281 281 280 279 279 278
313 314 314 313 310 311 309 309 310 310 308 307 306 305 304 304 302 300 298 298 296 295 294 293 291 290 290 288 287 287 286 284 283 282 281 280 280 280 280 279 278 277 276
310 312 311 310 309 309 308 307 307 306 306 305 303 302 300 300 299 298 295 293 293 292 291 291 289 287 286 285 284 283 282 281 280 280 279 279 278 278 277 277 276 275 275

GFSMW_850_thetae_093.txt.gz
Theta_e
330 330 328 326 325 324 325 325 326 324 324 325 326 326 325 325 326 324 318 317 317 319 318 315 313 313 314 315 317 318 317 317 316 314 314 315 315 315 314 313 315 316 317
330 329 328 325 325 325 324 325 324 324 325 326 325 325 326 325 324 320 317 315 316 316 313 312 313 313 316 318 319 319 320 319 319 318 319 319 317 317 318 316 315 314 315
330 329 328 326 325 324 324 324 325 324 324 326 326 325 324 322 318 317 314 313 314 314 314 316 316 319 319 319 319 319 320 319 320 320 321 322 322 321 319 318 317 316 316
330 329 328 326 324 325 323 324 324 323 324 324 325 325 324 320 316 314 314 314 315 316 317 318 318 317 317 320 318 318 319 321 322 321 320 321 322 322 321 320 319 318 316
329 328 328 326 326 325 326 323 324 324 323 323 324 324 323 320 318 318 316 315 316 314 316 315 318 318 317 318 316 318 318 321 319 321 322 321 321 321 322 321 320 320 318
329 329 328 325 326 325 325 325 322 323 322 322 322 322 323 320 318 318 316 316 316 315 314 318 318 319 319 317 317 318 318 317 320 321 321 321 321 321 320 320 320 320 320
329 329 328 326 325 325 324 325 323 322 323 323 321 321 321 320 320 316 317 317 315 314 314 318 319 318 317 317 319 319 317 317 319 320 320 318 318 318 318 319 320 320 320
329 329 328 327 325 325 324 324 323 323 322 323 323 322 321 322 321 319 318 317 316 318 318 317 317 320 320 320 321 320 317 320 321 318 316 318 318 318 318 320 321 321 320
328 329 329 329 326 325 325 325 323 323 323 322 323 322 321 320 320 321 320 318 315 317 319 317 316 317 320 320 321 319 318 320 320 319 318 318 317 317 319 320 321 321 321
328 329 329 329 328 326 325 324 323 323 323 323 323 323 322 322 321 321 321 320 318 317 319 318 319 318 317 319 319 319 321 321 320 319 319 317 317 317 318 316 317 316 318
328 328 329 329 330 328 326 325 324 323 324 323 323 323 323 322 322 322 322 321 322 322 320 321 320 321 320 320 321 321 320 320 320 319 319 318 315 315 315 315 316 316 316
328 328 328 329 329 329 327 325 324 324 323 324 324 323 324 323 323 323 322 322 322 322 321 321 321 321 320 320 320 320 320 320 321 320 319 317 315 315 318 319 318 318 319
327 328 328 329 330 330 329 327 325 324 323 324 324 324 324 324 324 323 323 323 322 321 321 321 321 321 321 321 321 321 321 320 321 320 319 316 317 323 321 320 318 318 319
324 326 327 328 329 330 330 328 327 325 324 323 324 324 324 324 324 324 323 323 323 323 324 323 322 322 322 322 322 322 322 321 320 320 321 323 322 321 320 319 319 318 317
322 323 326 328 329 329 330 330 329 327 325 324 324 324 324 325 324 324 324 324 324 323 323 323 323 322 322 321 321 321 321 322 323 322 322 322 321 320 319 318 316 314 312
320 323 323 326 328 329 330 330 329 329 327 326 325 324 324 324 324 324 324 323 323 323 322 322 321 321 322 322 322 323 322 322 322 321 320 319 317 316 315 313 312 308 306
321 322 322 322 324 327 329 329 329 329 329 327 326 325 324 324 323 323 323 322 322 322 322 321 321 322 322 322 322 322 322 321 320 318 316 313 312 310 308 306 305 303 302
321 321 321 321 322 323 327 329 329 329 329 328 327 326 325 324 324 323 323 323 322 322 322 321 322 322 322 321 321 321 320 317 314 312 309 307 306 304 302 301 300 300 299
320 320 320 320 321 322 324 327 329 329 328 327 327 326 325 325 324 324 323 323 322 322 320 320 319 318 316 316 315 315 313 311 309 305 303 300 299 299 298 298 297 297 296
321 321 321 320 320 323 324 326 327 327 326 326 325 324 323 323 322 322 320 320 320 320 318 317 314 311 311 307 307 307 306 305 302 300 298 296 297 295 295 294 294 293 291
319 320 320 321 322 323 324 325 326 326 325 324 323 321 320 321 320 321 320 319 317 315 312 311 307 306 304 302 301 300 300 299 298 296 295 294 294 293 292 291 290 288 287
316 319 321 321 322 322 322 322 321 320 320 320 320 320 320 319 318 317 315 314 312 311 307 305 302 300 298 297 297 297 296 295 294 293 292 291 289 288 287 286 283 283 282
313 314 316 317 317 318 318 316 315 316 318 318 317 315 315 314 311 311 310 309 306 305 302 301 298 295 294 294 293 293 293 292 291 289 287 286 285 283 282 282 281 280 280
309 310 311 312 311 311 312 316 313 314 316 316 313 311 311 309 306 305 303 301 301 299 297 297 295 293 292 292 291 290 289 288 286 284 284 282 282 282 281 281 280 279 278
306 305 306 308 306 306 309 310 310 311 312 310 309 308 308 307 303 301 299 297 295 295 296 293 292 291 291 290 288 287 286 285 283 282 282 281 281 280 280 279 278 278 277
301 300 301 303 303 303 305 306 307 309 309 307 304 302 303 302 298 298 294 292 292 293 293 291 291 289 288 286 285 284 282 281 280 281 280 279 278 278 277 277 276 275 275

GFSMW_850_thetae_096.txt.gz
Theta_e
330 332 330 328 327 325 324 326 326 325 324 325 325 326 326 325 326 325 326 323 324 324 324 324 324 325 325 323 321 319 318 317 317 316 316 316 316 316 317 317 317 316 318
332 331 329 327 325 328 326 326 325 324 324 325 326 327 326 326 325 326 325 324 323 323 322 322 322 323 323 321 318 318 318 317 317 318 315 316 316 316 316 316 315 314 315
331 331 330 327 325 326 327 327 324 324 324 323 324 326 325 324 325 324 324 324 322 318 316 316 320 320 318 316 317 318 319 318 320 318 319 320 321 320 320 319 318 317 316
331 331 330 328 325 327 326 325 325 323 324 324 325 324 324 324 325 325 324 316 315 313 316 316 315 314 314 318 319 317 318 320 320 319 320 321 322 322 321 320 320 319 318
331 330 329 328 326 325 325 324 325 324 324 324 325 325 325 325 325 323 316 314 314 314 315 313 313 315 318 319 317 318 319 319 318 319 321 320 320 320 321 321 319 321 321
330 330 329 328 327 325 325 324 326 324 323 323 324 324 322 323 322 319 316 314 314 314 314 314 316 317 319 318 318 318 318 318 316 321 322 321 322 321 321 320 320 320 319
330 330 329 327 327 326 326 324 323 324 324 323 324 323 322 321 319 318 316 314 314 314 314 315 317 317 318 317 318 319 318 317 316 318 317 317 319 320 318 318 317 317 317
330 329 329 327 327 327 323 325 323 324 324 323 323 323 322 321 319 317 316 316 314 315 316 316 315 315 318 320 319 318 317 317 317 317 317 317 318 317 317 316 317 318 318
329 330 329 327 326 327 324 323 324 322 324 323 322 322 322 321 320 318 315 315 316 315 316 315 314 314 316 318 317 317 317 317 317 318 317 319 318 317 316 317 317 317 318
329 330 330 329 326 327 325 323 324 323 322 325 323 322 322 322 321 321 319 318 316 315 316 315 314 314 319 319 318 318 318 318 319 318 317 318 318 318 318 317 317 317 319
328 329 330 330 327 327 326 326 325 324 324 324 322 323 323 322 322 321 321 319 316 316 317 316 316 317 317 318 317 318 319 319 317 318 318 318 319 319 319 318 319 317 317
327 329 329 330 330 327 326 325 325 324 324 324 324 322 322 322 322 321 321 321 321 319 318 317 319 319 318 318 320 320 319 320 320 319 321 320 321 321 321 321 320 318 316
327 328 329 330 331 329 327 326 324 324 325 324 324 324 323 324 322 322 321 322 321 320 320 320 318 320 320 320 320 319 319 320 320 320 321 321 322 321 321 321 320 320 320
323 327 328 329 330 331 329 327 326 324 324 325 324 324 324 323 323 323 321 322 323 323 323 322 321 321 322 321 321 320 321 321 322 322 322 322 322 321 321 321 320 320 318
320 322 325 327 329 331 331 330 328 326 325 324 325 325 324 323 324 323 323 323 323 322 321 321 321 321 321 321 322 322 322 322 322 322 322 322 321 321 320 319 318 317 314
319 319 321 324 327 329 331 330 329 328 327 324 324 325 325 325 324 325 324 323 323 323 323 323 323 323 323 323 323 323 322 321 322 322 322 319 319 318 317 315 312 311 307
318 318 320 322 325 328 329 331 330 330 328 327 325 324 325 325 325 325 325 324 324 324 323 323 323 322 322 322 321 320 321 322 321 320 318 316 312 309 306 306 303 303 302
323 322 322 321 322 323 328 329 330 330 330 328 326 326 325 325 325 325 325 325 324 324 323 322 321 320 320 320 321 322 322 321 318 314 309 306 304 302 301 300 299 299 298
322 322 321 321 321 320 321 327 330 330 330 330 328 327 326 325 325 324 324 323 323 322 322 321 320 320 319 319 320 320 317 313 309 305 303 300 299 298 297 297 297 296 295
319 319 319 320 320 320 321 324 328 330 330 330 329 328 326 325 325 324 323 322 321 321 320 319 315 314 313 308 309 309 307 306 303 300 298 298 297 296 296 294 293 292 290
316 317 318 321 322 322 322 324 327 330 329 329 328 327 326 326 325 324 322 322 320 319 316 313 308 307 305 301 301 300 301 300 298 297 295 295 293 292 290 288 287 286 285
313 314 316 319 322 323 324 325 326 327 328 327 326 324 323 324 323 322 319 317 316 313 308 306 302 299 298 297 297 297 297 296 295 293 291 289 287 287 286 284 282 282 281
311 311 312 313 315 318 321 322 321 319 320 321 321 320 319 319 317 317 315 313 309 309 301 298 296 293 293 294 293 294 293 293 291 289 286 285 283 282 281 280 280 280 279
309 307 307 309 310 312 314 317 318 316 316 318 317 315 315 312 308 306 303 300 299 299 297 294 293 293 292 292 292 291 291 289 287 285 283 282 281 281 280 279 278 278 277
304 303 303 304 304 304 306 307 308 310 312 311 307 304 303 302 301 299 296 297 294 296 295 292 292 292 291 288 288 287 286 284 283 282 282 280 279 278 278 277 277 276 275
300 300 300 299 298 299 300 299 300 302 304 303 301 299 298 296 295 295 293 290 291 291 292 292 292 288 287 285 283 282 280 280 281 280 279 278 277 276 275 274 274 273 273

GFSMW_850_thetae_099.txt.gz
Theta_e
331 331 331 330 329 325 321 325 325 326 326 325 325 326 326 327 327 328 328 326 327 324 322 321 324 324 322 322 323 321 318 318 317 317 317 318 318 318 318 318 318 316 314
332 331 331 330 329 321 324 325 326 325 323 323 324 326 325 326 326 326 324 324 325 324 324 324 326 324 324 323 323 319 319 318 318 317 317 317 316 317 317 317 317 317 316
331 330 330 330 325 320 323 324 324 324 324 323 327 326 326 325 327 325 325 323 322 323 325 324 323 324 324 324 322 320 318 318 317 317 317 318 318 318 317 316 316 317 316
331 330 330 328 322 319 325 326 324 325 325 324 325 325 326 326 326 326 325 324 324 322 324 324 324 321 320 322 321 319 317 317 317 317 319 320 318 321 320 320 319 319 318
330 330 330 328 323 320 326 325 324 323 324 324 325 325 325 325 325 325 325 324 324 324 322 322 318 322 322 322 319 317 318 318 318 319 319 319 320 321 321 321 320 319 319
330 330 330 328 325 321 326 323 324 323 322 323 324 324 325 324 324 323 323 324 323 323 322 319 316 318 318 317 317 318 317 319 319 319 319 317 319 320 320 319 319 318 319
330 330 329 328 327 323 323 324 324 323 322 323 323 324 324 324 324 324 324 323 322 321 320 316 314 315 315 314 319 318 318 318 318 318 318 318 318 318 320 321 320 319 318
330 330 329 328 327 325 322 323 323 323 322 322 323 323 324 324 325 325 324 322 320 321 319 315 314 313 314 314 318 318 318 318 318 317 317 318 317 317 317 319 318 317 317
330 329 329 328 327 326 324 322 322 322 322 322 322 322 323 323 323 324 323 320 317 316 314 314 314 314 316 317 318 318 317 318 318 317 318 317 316 316 317 319 318 317 319
329 329 329 328 328 326 326 322 323 322 323 321 322 322 321 322 322 321 322 319 317 315 315 315 314 315 316 315 317 318 318 319 318 317 317 317 318 317 317 317 318 318 318
329 329 329 328 328 326 325 321 322 322 322 322 322 321 321 321 321 320 319 319 318 316 316 315 314 314 315 316 316 316 316 319 318 318 317 318 318 318 317 318 318 319 319
328 329 329 328 328 327 326 324 321 323 321 321 323 323 322 322 321 321 320 319 318 318 317 316 316 315 315 315 314 314 318 319 318 317 317 318 318 318 318 319 319 321 321
320 329 329 329 328 328 327 326 322 322 323 323 321 324 324 322 322 322 321 321 320 319 318 316 315 315 316 316 315 315 319 317 317 318 319 319 320 320 321 322 322 322 322
318 320 329 330 329 329 328 328 326 322 323 324 323 321 323 323 322 322 321 321 321 320 320 319 318 317 318 317 318 318 318 319 319 320 320 321 321 322 322 322 322 321 320
321 320 319 328 330 329 329 328 328 327 321 324 324 323 322 322 321 322 321 321 321 321 321 321 320 320 319 318 320 320 321 321 321 322 322 322 322 322 322 322 319 319 315
323 323 322 321 325 330 330 329 329 328 326 322 324 325 324 323 323 323 322 322 320 322 322 322 322 322 321 321 321 322 322 322 322 322 322 322 322 321 320 317 314 310 310
320 320 321 321 320 323 330 330 330 329 328 326 323 325 325 324 323 323 322 322 321 321 322 323 323 321 320 320 320 321 322 322 322 322 320 316 312 310 307 306 303 304 301
318 318 318 319 320 320 321 330 330 330 329 328 327 324 325 325 325 324 324 324 323 322 322 322 322 322 320 321 322 322 322 321 320 318 311 306 303 301 300 300 298 299 297
317 316 317 317 318 319 320 321 325 330 330 329 328 326 324 325 326 325 325 326 324 323 324 323 324 322 322 321 321 321 320 319 313 305 302 300 300 298 298 297 296 295 294
316 316 316 315 318 319 321 320 322 330 329 329 328 327 325 324 325 325 325 325 323 324 324 323 319 318 317 316 317 315 314 309 303 299 299 298 298 297 295 294 293 291 289
316 315 315 314 314 318 322 322 322 328 330 330 328 327 326 325 325 325 325 325 323 323 319 317 313 310 309 305 303 303 303 302 300 298 294 292 290 289 290 290 288 286 284
312 312 313 313 312 314 317 320 320 323 326 328 328 328 327 326 325 324 323 319 319 319 316 313 308 303 300 298 296 296 297 295 296 292 290 290 289 287 284 283 281 281 280
311 311 309 310 311 312 313 315 317 317 319 319 321 322 321 319 318 319 319 314 310 308 303 299 297 295 294 294 294 290 290 291 291 290 289 287 284 282 281 280 279 278 278
311 310 304 304 307 308 311 312 312 314 315 318 317 315 315 313 311 310 307 306 303 298 296 293 291 288 288 289 292 292 289 289 289 287 283 282 281 280 279 278 277 276 275
308 308 301 301 302 303 304 306 306 308 311 313 311 309 306 304 301 299 296 296 294 294 293 291 291 290 290 287 288 288 286 285 283 283 281 280 279 278 277 276 275 274 274
303 303 300 298 299 299 299 300 302 303 305 304 299 298 297 296 295 294 292 292 292 291 291 291 292 290 289 286 284 282 282 282 281 280 279 277 277 276 275 274 274 273 273

GFSMW_850_thetae_102.txt.gz
Theta_e
330 332 332 331 330 329 327 320 324 326 326 326 325 325 326 326 328 330 327 329 328 328 327 321 312 312 313 317 318 318 317 317 317 318 318 318 318 317 317 316 316 317 316
330 332 331 330 330 329 323 321 325 324 325 326 326 325 325 326 326 328 327 329 326 326 327 318 314 315 319 321 321 320 318 317 316 317 318 318 318 318 318 317 316 316 317
329 331 330 330 330 329 320 322 324 324 325 324 324 323 325 325 327 327 327 327 325 323 327 319 317 316 318 322 322 321 317 317 317 317 316 317 317 317 318 317 315 316 317
328 331 330 330 330 328 320 323 325 324 324 323 324 324 325 325 326 327 328 327 326 326 324 320 320 321 319 321 322 322 317 317 317 317 316 317 318 317 317 318 316 316 316
327 330 330 330 329 323 320 323 324 324 322 324 325 323 325 325 326 326 326 327 325 323 322 320 324 324 322 322 323 321 319 318 317 317 317 317 321 321 320 320 320 319 319
327 329 330 330 328 320 321 321 323 323 323 323 324 323 323 326 325 326 326 325 324 323 324 322 324 325 324 322 322 320 319 317 317 316 316 317 320 320 320 319 318 319 318
328 329 329 329 326 320 320 321 322 322 323 323 324 325 322 323 324 326 326 326 325 323 321 323 324 321 322 319 322 320 318 317 317 317 318 318 319 319 318 318 319 320 319
328 329 329 328 325 320 319 320 322 322 323 323 323 323 323 323 323 325 325 325 324 322 323 324 323 322 318 319 320 319 317 317 318 319 319 318 318 319 318 318 318 318 320
328 328 329 328 326 322 318 318 320 321 322 322 323 323 323 323 323 323 324 325 324 323 322 318 318 318 318 318 318 316 317 318 317 318 318 317 317 317 317 317 317 317 318
327 328 329 329 327 324 321 318 317 318 322 322 322 322 322 323 323 323 324 323 324 322 319 319 320 319 315 315 315 316 317 318 318 318 318 317 317 317 317 317 318 317 318
327 327 329 329 328 326 323 320 318 317 321 323 322 322 322 322 322 323 323 323 322 320 322 322 320 319 316 315 315 315 315 318 318 318 318 318 317 317 317 318 317 318 318
321 326 327 328 328 327 325 323 320 318 318 322 322 322 322 322 321 322 322 322 322 322 322 321 319 316 315 314 315 316 317 318 318 316 316 318 318 318 318 318 318 319 319
321 327 326 326 326 327 326 325 322 317 317 321 322 322 322 322 321 322 322 321 321 321 319 318 316 315 316 314 314 316 315 315 316 315 316 318 318 318 318 319 319 320 321
321 320 325 326 326 325 327 326 324 319 317 318 321 322 322 321 322 322 321 321 320 319 318 318 317 317 317 316 314 315 315 315 315 314 316 318 317 318 320 320 320 320 320
320 320 319 323 322 326 326 325 325 324 319 319 319 320 322 322 321 322 322 322 321 320 319 318 318 317 317 316 315 315 316 316 316 315 316 318 319 319 320 321 322 321 319
318 317 317 318 321 322 326 326 326 324 323 321 319 320 320 320 323 323 322 322 321 321 321 320 320 320 320 319 318 317 317 318 320 320 320 321 321 321 320 320 318 314 312
316 316 316 316 317 319 321 323 325 326 325 324 323 322 321 322 321 320 321 322 321 321 321 320 320 320 321 320 319 319 318 319 321 322 322 321 320 319 315 311 306 303 304
316 315 314 314 315 317 319 321 327 326 326 326 324 323 323 323 323 322 321 321 322 321 321 320 320 321 321 321 322 321 321 321 321 320 319 317 311 306 303 301 300 300 298
315 314 314 314 315 315 317 319 320 323 325 328 327 324 324 324 324 324 323 323 323 322 322 321 320 321 322 322 322 322 320 320 320 317 310 303 301 299 300 299 297 295 294
314 313 313 313 314 314 314 317 321 322 325 325 325 325 324 324 324 325 324 324 323 322 322 323 322 322 321 321 321 320 319 318 309 299 298 297 297 295 293 294 293 292 291
313 313 312 312 311 312 312 315 319 322 326 325 324 324 324 324 325 325 325 325 324 324 323 321 319 317 315 314 311 310 313 311 303 297 293 292 290 291 292 290 289 288 284
312 312 311 311 311 311 311 312 314 318 321 323 323 324 324 324 324 325 325 324 324 322 319 314 311 306 305 303 301 301 301 296 295 294 293 293 294 293 287 285 283 281 281
308 306 305 306 307 309 309 309 310 311 315 316 319 320 322 323 323 322 323 319 315 313 310 305 299 296 294 293 293 294 294 294 294 291 288 286 288 285 283 281 280 279 278
305 303 300 300 302 304 305 305 307 309 311 313 313 314 313 313 312 313 312 311 306 303 299 294 292 290 289 291 292 292 292 293 292 289 287 284 281 281 280 278 277 277 277
305 302 298 298 298 300 301 301 302 303 307 309 309 306 307 306 302 301 298 301 297 296 290 291 291 292 291 291 290 291 290 289 286 283 282 281 280 279 277 276 276 275 275
302 301 296 296 297 297 298 298 298 298 301 302 302 300 297 297 296 294 292 292 293 293 293 293 294 292 291 289 289 287 285 283 282 281 280 279 277 276 276 275 275 274 274

GFSMW_850_thetae_105.txt.gz
Theta_e
319 321 326 329 331 332 331 328 324 320 325 324 324 325 328 326 328 328 327 326 326 326 327 327 325 322 306 307 310 317 319 319 319 319 319 319 319 318 317 317 314 313 313
320 326 327 330 332 331 329 328 322 322 325 324 325 325 325 328 327 328 329 326 326 326 327 328 327 311 306 307 308 317 319 318 318 318 318 318 318 319 318 318 317 315 315
319 323 329 330 332 330 329 328 320 324 325 324 324 325 325 324 327 326 328 327 327 327 328 328 321 309 307 307 309 318 317 316 318 318 317 317 317 318 318 318 317 317 316
320 322 327 331 331 330 329 327 320 324 324 325 325 324 325 325 325 326 327 327 328 327 327 327 316 308 308 309 309 314 313 314 317 318 317 315 316 317 318 317 317 317 316
320 322 324 329 330 329 329 324 321 324 324 324 323 323 324 323 326 326 326 327 327 327 327 325 313 310 312 315 317 320 317 316 315 316 316 316 318 318 318 317 317 317 319
320 323 324 328 330 329 328 321 322 324 324 323 322 325 324 326 324 326 326 326 327 323 322 325 321 313 316 319 320 321 320 317 316 315 314 316 317 319 320 320 319 319 319
320 323 325 327 329 329 326 320 323 324 323 323 324 324 325 325 325 325 326 327 324 322 321 323 323 315 317 320 322 321 322 318 317 317 316 317 317 319 319 319 318 318 319
323 323 325 326 329 329 325 319 322 323 323 323 323 324 323 323 325 325 326 326 325 323 324 323 321 319 320 320 321 321 320 318 318 318 318 317 317 317 318 318 317 319 318
327 326 325 326 329 329 324 318 321 322 322 322 323 323 322 323 323 323 325 326 325 325 323 321 319 319 318 321 319 317 320 319 318 317 317 317 318 319 318 318 317 318 318
324 327 326 326 327 328 323 319 321 321 321 322 322 322 323 323 323 322 324 324 325 324 323 324 321 321 323 323 322 321 321 319 317 316 317 318 319 318 317 317 318 317 317
320 323 327 327 326 325 323 319 320 321 321 322 323 322 322 322 322 322 321 322 324 324 324 323 322 321 323 322 322 320 320 318 318 317 318 317 317 317 318 318 318 317 318
320 325 326 327 327 325 324 322 322 320 319 321 322 322 323 322 322 322 322 320 322 321 322 322 322 323 322 321 319 319 316 315 317 317 318 318 318 318 318 318 318 318 318
319 323 325 326 326 326 325 323 322 322 321 320 321 322 322 322 322 321 322 321 321 321 320 320 320 322 320 320 318 317 314 315 315 316 317 318 318 317 316 318 318 317 317
317 317 321 323 324 326 326 326 324 322 322 320 321 322 322 322 321 321 321 321 321 321 321 321 321 321 322 321 319 316 314 315 316 316 317 316 316 315 315 316 318 317 318
317 316 317 320 322 324 325 326 326 326 324 321 321 321 322 322 322 321 321 321 321 321 321 321 320 318 317 317 316 315 315 314 314 315 315 315 315 315 314 315 317 318 319
316 315 315 315 318 321 322 324 325 325 325 325 322 321 320 321 321 321 320 321 321 321 320 319 318 318 317 317 316 315 315 315 314 314 315 315 315 316 317 317 318 320 318
315 314 314 313 314 316 320 321 322 324 326 325 325 323 322 321 320 321 321 320 321 321 321 320 319 319 319 318 318 317 317 317 316 316 316 316 317 319 318 316 314 310 307
314 313 314 314 313 314 315 319 321 323 325 325 325 326 326 323 322 321 321 323 321 321 321 321 320 320 320 319 320 320 320 319 318 318 319 319 318 314 308 305 304 302 300
311 311 311 311 312 313 314 314 317 320 323 326 326 325 326 325 323 323 322 321 321 321 321 320 321 321 319 319 319 319 320 319 318 318 317 312 307 302 299 299 300 298 297
309 309 309 308 310 310 312 313 314 317 322 322 324 324 325 325 325 323 323 322 321 320 321 320 320 321 321 320 320 321 321 320 316 313 305 300 299 295 294 295 295 295 294
310 308 307 308 309 310 310 311 313 315 319 323 323 324 324 324 324 324 324 324 322 321 321 321 320 320 319 318 319 319 318 317 311 301 294 292 293 294 295 293 292 291 288
308 307 307 305 303 305 307 309 309 310 313 316 319 322 323 323 323 324 324 324 323 322 321 319 318 315 313 311 308 305 304 302 302 293 292 292 293 292 291 291 287 284 282
305 305 304 303 301 301 301 303 306 308 309 310 315 318 320 322 323 323 324 323 323 321 317 316 306 299 296 298 298 298 297 293 295 293 293 292 291 288 286 283 281 280 279
305 304 303 301 297 297 298 299 302 305 307 308 311 312 313 314 315 316 317 315 313 311 311 307 301 297 296 293 293 294 294 296 296 294 290 288 286 283 280 279 278 278 278
300 299 298 297 296 296 296 296 297 300 302 303 304 305 306 307 308 306 304 304 301 301 300 297 296 294 293 293 296 296 294 292 291 289 287 283 281 280 279 278 277 277 276
299 298 297 296 294 294 294 294 293 294 298 300 298 298 297 297 297 296 294 294 296 293 294 293 295 294 295 292 291 290 289 288 286 284 282 280 278 278 277 276 276 275 275

GFSMW_850_thetae_108.txt.gz
Theta_e
320 321 320 319 319 324 328 330 332 330 325 322 324 329 326 325 327 325 325 327 325 325 326 326 325 325 324 325 315 321 323 319 320 320 319 319 319 318 317 310 309 309 309
320 320 320 320 320 326 329 331 331 328 323 322 324 327 326 325 326 327 328 328 326 324 326 325 324 324 324 325 315 317 320 319 320 319 319 318 318 318 318 317 317 314 313
319 320 321 320 324 327 330 331 330 327 321 324 324 324 325 324 326 326 328 328 325 326 325 326 326 325 325 325 312 311 320 319 319 319 319 318 318 318 318 318 318 318 316
318 319 320 320 323 328 330 331 329 326 321 325 324 324 324 324 324 325 326 326 326 325 326 325 326 326 326 317 309 312 318 319 319 319 318 317 315 317 316 317 317 317 317
318 319 319 321 322 328 330 330 328 324 322 324 323 324 324 324 324 324 326 327 327 326 326 325 327 325 325 310 307 312 318 319 319 318 318 317 315 315 316 317 317 317 317
318 318 319 321 323 328 330 329 328 322 323 323 323 323 323 323 323 325 326 325 326 325 327 326 327 326 317 308 307 309 318 318 318 316 317 318 315 317 317 318 317 317 317
323 318 320 321 323 326 329 329 327 322 322 324 323 321 324 324 325 324 326 323 323 323 326 326 326 319 309 307 307 307 315 318 315 314 316 317 315 317 319 318 318 319 317
322 325 323 324 325 325 328 328 327 321 323 323 323 324 322 324 325 324 324 325 326 326 325 326 325 320 308 308 310 310 315 315 316 317 316 317 316 316 317 318 318 319 318
320 324 325 325 325 325 327 327 325 321 322 322 322 323 322 323 323 324 325 325 325 326 326 325 324 321 318 312 320 319 319 319 319 317 317 317 317 316 317 317 319 318 318
320 325 324 325 324 325 326 326 323 321 322 322 322 322 322 323 323 324 325 326 326 325 324 323 322 321 319 317 315 316 316 319 318 316 316 316 317 317 317 318 318 317 317
321 324 323 324 324 324 325 325 322 321 321 322 322 322 322 322 322 322 323 324 325 325 324 323 322 322 323 318 316 316 316 317 318 315 318 316 316 316 318 318 317 317 318
319 323 324 324 323 324 324 323 322 322 322 321 322 322 322 322 322 321 322 323 323 324 324 323 324 323 320 319 320 320 318 319 318 317 319 317 315 315 317 318 317 317 317
316 319 320 324 324 325 325 325 323 320 320 322 322 322 322 322 321 321 321 320 321 322 323 323 323 322 321 320 319 319 320 321 320 320 319 317 317 316 318 317 318 317 316
319 315 318 319 321 324 325 325 325 325 322 321 322 322 322 322 321 320 320 321 320 320 321 321 321 322 322 322 322 323 322 320 319 317 315 316 317 317 317 318 317 316 316
319 316 314 315 318 323 324 325 325 325 324 323 322 320 320 321 321 321 320 319 319 320 319 319 319 320 321 322 321 320 319 317 315 314 315 315 316 316 317 316 315 315 314
316 316 316 314 313 316 319 322 324 325 325 325 324 323 321 320 320 320 320 320 320 319 319 320 319 320 320 321 321 320 320 317 314 314 315 315 315 316 315 315 315 315 315
315 313 313 316 313 313 313 317 320 323 323 324 325 324 323 322 320 320 320 319 320 320 319 320 319 319 319 318 317 316 315 315 314 314 315 315 314 314 315 315 315 316 315
312 310 311 311 311 312 314 316 318 321 321 324 323 324 325 324 322 321 320 320 319 318 320 320 320 319 318 317 317 316 316 315 314 315 316 316 316 315 316 315 313 310 307
310 309 309 309 309 310 311 312 314 319 321 321 322 324 324 325 324 323 322 321 321 319 318 319 320 320 319 319 319 319 318 317 317 317 316 314 312 310 306 303 303 302 300
309 308 307 307 308 308 309 310 312 313 316 319 320 322 322 323 325 324 323 323 321 322 319 318 318 319 319 320 320 320 319 318 317 315 313 308 305 298 296 298 298 297 295
306 305 305 305 304 303 304 306 307 309 309 313 317 320 322 321 324 324 324 323 322 321 321 320 320 319 318 318 319 320 319 318 316 309 303 297 295 295 295 295 295 295 292
305 305 305 304 303 303 304 303 304 306 306 308 311 316 319 320 321 323 323 323 322 321 323 323 320 318 318 318 317 318 317 313 313 303 295 293 293 293 292 292 291 291 288
302 302 302 302 302 300 300 301 301 302 306 308 309 312 316 318 319 320 321 322 322 321 320 318 317 315 313 309 307 304 304 303 298 294 294 295 294 293 291 289 285 281 281
301 300 300 301 301 301 300 300 300 301 301 302 305 309 310 313 313 314 315 315 314 314 315 311 306 301 296 295 295 295 295 295 297 295 293 290 290 289 287 281 280 279 279
299 300 300 298 296 296 297 297 299 301 302 300 301 303 304 304 305 305 304 305 304 303 302 299 301 299 291 289 291 293 294 294 294 291 289 288 286 282 280 279 279 278 278
297 297 297 297 296 295 295 295 296 296 297 296 295 294 296 297 297 297 296 295 296 296 297 295 294 291 293 292 292 291 290 290 289 289 287 282 280 279 278 278 277 277 276

GFSMW_850_thetae_114.txt.gz
Theta_e
320 320 319 321 319 319 321 327 331 330 327 330 331 333 332 327 327 327 327 327 327 330 326 327 325 328 326 324 325 324 324 323 324 324 324 323 322 322 318 318 318 319 319
318 318 318 322 318 319 321 328 331 333 328 331 331 333 331 326 325 326 325 327 327 327 328 328 326 328 327 325 325 325 324 323 323 324 323 322 321 322 320 318 318 319 318
317 318 319 321 324 319 322 328 331 333 329 331 332 332 329 324 324 325 326 326 327 327 328 327 327 326 327 324 324 324 324 323 323 323 322 321 321 321 321 319 318 318 318
322 322 321 321 323 323 324 324 331 332 330 331 332 331 329 326 325 326 326 325 326 327 326 327 326 326 326 326 324 325 322 322 322 323 322 321 321 321 321 320 319 318 318
325 326 325 322 322 327 324 323 326 329 330 331 332 330 327 327 326 326 326 325 327 326 327 326 327 326 326 326 326 325 322 321 321 322 322 322 322 321 320 319 319 319 319
326 327 327 323 325 328 321 323 327 331 331 331 329 328 325 322 326 325 324 325 325 326 326 326 326 325 325 325 325 325 321 321 321 321 322 322 320 321 320 318 319 319 320
327 327 328 327 327 328 323 324 332 331 332 331 329 325 322 322 326 324 325 324 324 324 326 325 325 324 324 324 325 326 321 320 321 320 321 321 321 320 319 319 319 319 320
328 328 328 329 328 324 323 325 330 329 331 330 328 323 322 323 323 326 324 324 323 324 324 324 325 325 324 324 325 325 323 321 321 321 321 321 321 321 320 319 322 320 320
328 328 328 328 327 325 324 326 329 328 329 327 325 323 322 322 325 325 324 325 324 324 325 323 322 323 323 322 324 324 323 321 321 321 321 321 322 321 317 320 320 319 320
326 326 327 326 325 323 323 323 324 326 327 324 323 323 323 323 323 324 324 324 325 323 323 321 321 322 322 321 321 321 322 322 320 319 321 321 319 318 317 317 318 318 319
325 324 323 323 323 323 322 322 322 324 325 324 323 321 321 323 323 324 323 325 324 323 322 320 321 322 323 323 322 323 321 319 316 315 319 319 319 318 317 316 314 316 317
322 322 321 322 322 322 321 321 322 322 324 322 322 321 322 321 323 322 323 324 324 324 322 320 319 321 323 324 320 311 308 307 310 316 316 314 310 314 314 315 313 313 315
320 319 318 316 320 321 320 321 321 323 324 321 323 322 323 322 322 322 322 322 324 323 323 322 322 324 323 320 317 309 308 308 309 311 313 310 315 317 316 317 316 314 315
319 318 317 314 315 317 319 321 321 322 323 322 323 322 321 320 321 321 322 321 322 323 322 322 323 323 323 321 320 321 320 310 310 312 310 311 315 317 318 317 315 315 315
319 317 315 312 310 314 315 316 320 322 322 322 322 320 321 321 321 321 321 321 321 321 321 322 322 323 322 323 322 320 320 319 314 313 311 312 317 318 317 317 316 316 316
316 315 313 311 313 312 313 313 314 317 320 322 322 321 323 322 321 320 320 320 321 321 320 321 322 321 321 321 322 322 322 321 319 318 316 316 316 317 316 316 316 318 317
312 311 309 307 309 312 311 312 313 313 314 321 321 322 322 322 321 320 320 320 320 320 320 320 320 320 320 320 321 321 320 320 321 321 319 317 317 317 318 318 317 315 316
310 309 307 305 305 307 312 312 312 311 312 317 320 320 321 322 322 321 320 319 319 320 320 320 321 320 319 319 320 320 320 319 320 320 320 319 319 318 319 315 315 316 316
306 305 304 302 302 304 305 310 310 311 312 315 317 319 320 321 321 322 321 320 320 319 319 319 319 319 319 319 319 319 319 319 319 318 318 317 317 317 315 314 314 313 312
303 303 302 300 300 300 300 305 307 307 309 309 313 316 319 321 321 321 321 322 321 320 319 318 318 319 319 319 318 319 318 318 317 316 316 315 315 315 315 314 312 310 306
300 301 300 299 297 296 297 299 300 306 304 304 307 310 313 318 319 319 321 321 321 321 321 320 318 318 318 318 317 317 318 318 317 315 315 314 312 310 310 307 303 302 298
299 299 298 297 296 296 296 294 299 300 301 303 305 307 309 312 317 318 320 320 321 321 321 320 319 318 317 318 318 317 316 316 316 315 311 306 304 301 298 296 297 296 293
297 296 296 295 294 294 295 293 296 297 299 301 302 303 306 308 313 316 318 319 319 320 319 318 317 316 316 316 315 315 313 312 310 306 300 296 293 294 292 292 289 289 289
295 295 294 293 292 291 291 293 294 294 298 300 301 301 304 305 307 311 311 312 314 314 314 313 311 309 309 307 306 304 300 299 300 296 294 292 291 291 289 289 289 288 286
292 293 292 290 289 290 293 294 293 294 296 297 298 298 300 301 303 304 303 303 303 304 307 306 305 303 300 298 298 298 297 296 294 293 290 289 288 288 288 288 286 282 280
290 291 292 290 290 291 291 292 292 293 294 296 296 296 296 296 296 297 297 297 298 298 299 299 299 297 297 295 293 293 293 292 291 290 288 288 287 287 286 284 281 279 279

GFSMW_850_thetae_117.txt.gz
Theta_e
323 322 322 322 322 322 326 328 330 337 339 338 338 336 332 331 332 332 328 324 328 329 328 328 329 329 329 328 327 327 325 324 325 323 323 323 322 322 320 320 320 321 321
322 322 322 322 322 323 329 329 332 336 338 337 338 333 334 332 333 331 328 324 324 327 327 327 328 327 329 328 327 326 324 322 325 323 323 323 322 321 320 319 320 320 319
320 320 320 321 321 326 330 331 332 335 337 337 337 335 335 334 333 330 326 328 326 327 328 327 328 327 328 326 327 325 325 322 323 323 323 323 323 322 321 319 319 320 320
318 318 319 320 322 324 330 332 332 334 336 334 333 336 334 331 331 330 326 328 327 326 326 327 326 327 328 326 326 325 324 322 323 323 323 322 321 322 322 320 319 320 320
322 323 323 323 323 323 329 333 333 334 336 334 335 335 336 333 332 330 330 329 328 327 326 327 327 326 327 326 326 326 325 324 323 322 322 322 323 321 322 321 320 319 319
325 325 326 328 325 328 332 334 333 335 335 334 336 335 335 333 331 330 330 330 328 327 328 328 327 326 326 327 325 325 325 324 323 322 322 323 323 322 323 322 321 320 319
327 327 328 329 327 330 333 329 330 333 334 334 334 335 334 332 331 330 329 329 330 328 327 327 326 326 326 325 325 326 326 324 323 322 322 324 323 322 322 321 321 320 320
328 328 329 330 330 331 331 329 331 331 332 334 334 333 333 331 329 328 328 328 326 326 325 325 325 326 325 325 325 325 326 325 322 321 322 323 322 321 321 320 321 320 320
329 329 330 330 329 328 327 326 327 329 329 333 332 331 331 329 327 327 327 329 326 325 324 324 324 324 324 324 325 325 325 325 323 320 320 321 322 321 321 321 321 320 321
328 328 328 327 327 325 324 325 325 327 327 330 330 330 330 328 327 326 328 326 324 326 324 324 324 323 322 323 323 323 323 324 323 321 319 320 321 322 322 321 322 322 321
327 325 324 323 323 324 323 323 323 325 326 329 328 329 328 327 326 327 325 325 324 324 324 324 322 320 319 321 322 322 322 323 323 321 322 322 321 321 321 319 318 319 319
324 323 322 321 322 322 322 322 322 323 324 327 326 326 326 326 325 325 325 324 324 324 324 322 321 319 319 319 320 320 321 323 323 322 322 322 321 321 320 318 318 316 315
322 321 320 317 318 321 320 320 321 322 324 324 324 324 325 325 324 324 324 323 323 324 324 322 320 320 321 321 319 319 320 321 322 322 322 322 320 320 319 319 314 315 313
321 320 318 315 313 314 317 320 320 321 322 322 322 323 323 322 323 324 323 322 322 323 324 323 321 320 321 322 322 318 317 317 318 316 314 315 318 319 318 313 312 315 315
320 318 316 314 312 312 313 315 318 320 322 322 321 321 321 322 324 324 322 322 322 323 323 323 322 322 322 323 321 317 311 313 310 309 311 313 315 312 314 312 315 317 317
318 315 314 313 312 312 312 312 313 314 318 321 322 323 321 323 323 323 323 322 322 322 322 322 322 322 322 323 320 318 317 312 314 317 310 314 313 314 311 314 317 317 317
315 313 312 310 309 309 311 311 312 312 313 318 322 323 323 321 322 323 322 322 322 322 322 322 322 322 322 322 321 321 321 321 320 320 315 312 313 313 311 313 316 318 317
312 310 309 308 307 307 308 309 311 311 312 312 315 319 321 322 322 321 322 321 321 321 321 321 321 321 322 322 322 321 321 322 322 321 321 321 319 318 316 316 315 316 316
309 308 306 305 304 304 304 304 309 310 311 310 310 313 315 321 322 322 321 320 320 320 321 321 321 320 320 320 319 320 321 320 321 320 320 319 319 319 319 318 317 317 316
306 306 304 303 302 301 302 302 302 307 308 309 309 311 312 317 320 321 321 321 320 320 319 319 319 320 320 319 319 319 319 319 319 319 319 319 318 318 317 316 316 316 313
303 304 302 301 299 298 300 300 299 304 305 307 306 305 310 312 316 319 320 321 321 321 320 319 319 319 319 319 319 319 319 318 318 318 317 316 315 315 315 314 312 311 310
302 301 301 298 297 296 296 297 296 298 301 305 309 308 309 310 311 315 318 320 321 321 321 320 319 319 318 318 318 318 317 317 316 316 314 311 312 309 305 301 301 301 300
299 298 298 297 295 294 293 294 292 294 298 300 302 305 307 309 310 313 316 318 319 319 320 318 318 317 317 317 317 317 316 315 313 312 309 306 303 296 295 295 294 291 290
296 296 295 294 293 292 291 291 291 292 296 298 301 302 303 306 308 311 312 312 312 314 315 314 311 310 309 310 311 310 308 306 305 302 297 294 293 293 292 290 290 289 288
294 293 293 292 291 290 289 289 289 290 293 294 294 296 298 300 301 304 304 305 305 305 306 306 306 305 302 301 301 301 300 300 299 299 295 293 291 290 289 288 288 288 288
290 290 289 288 288 287 288 291 291 291 291 292 292 292 292 294 295 295 296 296 297 298 299 299 300 299 299 298 296 295 295 295 293 292 291 288 288 288 287 287 285 284 282

GFSMW_850_thetae_120.txt.gz
Theta_e
323 323 323 323 322 322 322 323 328 332 334 339 341 341 338 339 337 338 332 331 329 327 327 329 330 331 330 330 329 327 327 327 325 326 322 323 324 322 320 322 320 321 317
322 324 323 323 323 323 323 323 324 327 334 335 340 341 338 339 338 335 334 333 331 327 327 329 329 329 330 330 329 328 327 326 323 326 323 324 323 321 320 320 321 321 321
322 322 322 323 323 323 323 324 327 327 333 338 341 340 338 337 336 337 336 332 328 327 326 329 329 329 329 330 329 328 327 326 321 325 323 323 322 321 321 320 320 321 321
318 321 321 322 321 322 323 322 326 329 334 338 340 338 336 334 335 335 334 331 328 324 327 327 328 328 328 328 327 328 327 326 320 325 323 322 322 321 321 320 319 320 320
317 318 319 319 320 321 322 322 326 331 334 337 339 336 335 333 335 335 332 331 329 327 326 326 327 327 327 327 324 328 326 326 322 323 323 323 323 321 320 320 320 320 320
322 323 323 323 324 326 325 326 330 332 334 335 337 336 334 336 333 333 333 331 328 328 328 326 326 327 327 327 326 326 326 326 324 322 323 322 322 322 321 321 320 320 320
325 326 326 328 327 330 332 334 334 334 335 335 336 333 335 336 334 332 331 331 329 329 329 328 327 327 327 326 327 326 326 326 325 323 323 320 321 323 323 321 321 320 320
327 329 330 330 330 333 334 333 331 332 336 337 335 335 333 335 334 332 331 330 328 328 328 329 328 329 327 326 326 326 326 325 326 322 322 323 321 324 322 322 322 321 320
328 330 331 330 330 330 330 329 326 329 333 333 332 334 335 333 332 331 331 329 329 328 327 327 327 327 326 326 325 326 326 326 326 325 324 323 323 322 321 322 322 321 321
329 329 328 326 326 325 325 324 325 326 328 329 332 334 333 332 330 329 328 327 327 327 327 325 324 324 324 324 324 325 324 325 325 325 324 321 324 320 322 321 320 321 320
327 325 324 322 322 323 323 323 323 324 325 327 330 332 331 330 329 327 326 326 327 327 324 325 324 324 324 324 323 324 324 324 324 325 324 322 321 317 322 321 320 321 320
325 323 322 319 321 322 322 321 323 323 325 326 329 331 330 329 327 326 325 326 325 324 324 324 323 323 321 322 321 322 322 323 324 324 324 322 320 317 321 320 320 319 321
322 320 317 316 318 319 320 321 322 323 324 325 327 329 327 326 325 324 325 325 325 324 324 323 323 321 321 321 320 320 321 322 323 324 323 323 320 319 321 321 315 318 319
320 319 317 315 313 315 318 318 320 321 323 324 325 326 326 324 324 324 323 324 323 323 324 323 322 321 320 321 319 319 319 320 322 323 323 320 320 321 321 319 318 318 317
319 318 316 314 312 313 313 315 317 319 321 322 323 323 323 323 323 323 325 324 322 322 323 322 321 320 320 321 321 319 319 320 321 322 323 321 321 322 320 320 319 318 316
316 315 314 313 312 311 312 312 313 316 317 319 321 321 322 322 323 323 325 323 322 322 324 322 321 320 320 321 321 318 319 319 319 319 317 317 317 315 318 319 318 317 316
314 313 311 310 309 310 309 311 312 312 313 314 317 320 322 323 324 324 324 324 322 321 321 321 322 321 321 321 321 320 318 317 317 316 317 317 319 320 320 317 315 313 313
311 309 308 307 306 306 306 306 308 311 311 312 312 313 319 321 320 322 324 322 322 322 322 321 321 321 321 321 321 320 318 313 313 312 311 314 316 312 314 315 314 314 311
308 307 305 304 303 304 304 303 302 306 309 311 311 311 310 315 320 321 321 323 322 321 322 321 322 320 320 322 322 321 319 318 318 318 319 320 318 314 313 312 314 313 314
306 305 303 301 300 300 302 300 299 301 306 308 308 309 311 310 313 318 320 321 321 322 321 321 321 321 320 320 320 320 320 319 318 318 318 317 317 317 317 316 315 314 313
303 303 301 299 297 297 299 298 296 296 298 301 306 307 309 310 310 311 318 321 322 321 322 320 319 321 320 320 320 319 319 319 319 318 318 318 317 317 315 315 312 311 310
300 300 299 297 295 295 295 295 294 293 296 299 302 305 307 308 309 310 313 317 320 321 321 321 319 319 318 319 318 318 318 318 318 318 317 316 316 313 309 308 307 305 303
297 297 296 295 294 293 292 293 292 292 295 297 299 301 303 306 309 309 311 311 314 317 319 319 319 317 317 317 318 317 316 315 315 314 312 311 310 305 303 300 300 299 297
294 294 294 293 291 291 290 289 290 292 296 297 296 298 299 301 302 306 304 305 310 310 309 310 310 310 309 311 312 312 311 310 308 310 307 299 297 297 297 295 294 293 293
291 291 290 290 289 288 287 289 291 292 295 295 294 295 294 295 297 300 304 305 306 301 307 306 301 304 301 301 302 302 305 301 304 302 299 298 296 294 291 289 289 289 289
287 289 288 288 288 289 289 289 289 291 292 293 294 293 294 294 293 292 292 291 294 296 297 299 301 299 297 297 298 298 298 297 297 295 295 291 290 289 287 288 286 287 287

GFSMW_850_thetae_123.txt.gz
Theta_e
322 322 322 321 321 321 320 321 325 330 333 334 333 337 335 339 336 334 336 334 333 335 332 331 332 332 332 330 329 329 327 326 326 326 325 325 324 323 322 321 321 320 316
321 322 322 323 323 323 321 322 323 329 331 331 331 333 332 336 336 335 336 336 334 336 333 330 330 332 331 330 330 329 328 326 326 325 325 324 323 322 321 321 321 320 320
317 317 321 323 323 323 322 322 324 328 329 333 335 338 339 340 339 336 337 336 335 338 333 329 329 330 329 329 330 330 328 327 326 325 325 324 323 321 320 320 321 320 320
314 315 316 321 323 322 323 324 324 327 329 331 335 335 334 337 339 337 335 334 333 333 334 330 329 329 330 329 328 329 329 327 327 326 325 323 323 322 321 320 321 321 320
314 314 315 319 322 322 322 323 324 325 327 331 332 333 336 338 338 335 334 333 332 334 333 330 329 329 329 328 328 328 329 328 327 325 324 323 322 322 321 320 319 319 320
314 315 316 318 321 321 322 325 324 324 327 331 332 335 336 338 335 334 332 332 333 333 332 330 329 327 329 328 328 328 328 327 327 325 324 323 322 322 321 320 319 319 320
317 325 326 328 329 327 326 326 328 330 331 332 332 335 337 339 335 333 332 333 332 331 328 329 327 327 327 328 327 328 327 328 327 326 322 324 322 321 321 320 319 320 319
330 330 331 333 333 333 333 332 332 334 335 334 333 335 336 336 334 334 333 332 332 330 328 329 328 327 329 328 329 327 327 326 325 326 323 324 322 323 321 320 319 319 320
330 330 330 330 330 331 331 331 331 331 332 335 336 336 334 333 335 336 333 331 331 330 328 327 327 327 326 326 327 326 326 326 325 327 325 322 322 321 322 322 322 319 320
328 328 327 326 325 326 326 326 325 324 330 334 336 334 334 334 334 334 332 330 330 329 327 326 327 325 326 326 327 326 326 326 325 325 326 325 321 320 322 322 322 321 320
326 324 322 322 324 323 323 322 323 324 325 327 329 330 333 334 334 333 332 330 329 327 327 326 327 326 326 324 325 325 325 325 325 326 326 325 323 322 322 323 322 322 322
321 321 320 320 320 321 321 321 321 323 324 325 326 328 333 333 333 331 329 327 326 325 326 326 325 324 324 323 324 323 323 324 323 325 324 324 322 321 322 322 322 321 321
317 316 318 318 318 319 319 320 321 322 323 325 326 328 329 331 330 329 327 326 325 324 325 324 323 324 323 323 322 321 322 323 323 324 324 325 324 323 322 322 319 321 321
317 314 313 313 314 316 318 319 320 321 323 324 325 326 328 328 329 327 325 324 324 324 324 323 323 322 321 320 321 320 320 320 321 322 323 324 324 323 320 317 320 321 320
315 314 312 311 311 312 313 315 317 319 321 322 323 324 324 324 324 324 324 323 322 323 321 322 320 320 320 320 321 320 319 319 320 320 323 323 323 322 321 319 318 319 318
313 312 311 310 309 309 310 312 313 315 317 320 321 322 322 322 323 322 323 324 323 322 321 323 321 320 319 319 320 320 319 320 320 321 321 322 323 323 321 318 318 320 319
309 307 307 307 306 306 306 308 311 312 313 314 316 319 321 322 323 324 324 323 323 322 321 322 321 321 320 320 320 320 319 319 320 322 322 322 322 321 319 320 320 319 318
305 304 304 304 304 304 304 304 305 309 311 312 312 313 316 319 322 324 323 324 324 323 321 321 321 321 321 321 321 321 319 318 318 319 318 320 322 321 320 318 318 315 313
303 302 302 301 302 301 301 301 302 305 308 309 310 311 311 313 316 319 321 323 323 323 322 322 322 320 320 321 321 320 319 318 316 316 318 318 318 315 314 317 317 317 316
302 301 299 299 300 298 298 299 299 300 302 303 306 308 310 311 312 314 318 320 321 323 322 322 321 322 320 320 321 319 318 317 315 313 314 317 315 316 315 316 315 314 313
299 299 297 295 296 296 296 296 295 296 297 299 301 305 307 309 310 311 312 317 320 321 322 321 321 321 320 320 320 320 320 319 318 317 316 317 316 316 316 315 315 315 314
296 295 294 293 293 294 295 293 292 293 295 297 300 302 304 306 307 309 310 313 315 319 320 322 321 320 320 320 319 319 319 319 319 318 316 316 316 315 313 312 311 310 309
293 293 292 292 292 292 292 291 291 293 295 297 299 300 302 303 305 307 308 311 311 308 316 317 318 319 318 319 319 319 319 317 317 316 315 315 313 310 307 304 303 302 301
291 291 291 290 290 289 289 290 291 293 295 297 298 298 300 301 302 304 305 307 309 308 309 304 307 306 310 312 313 314 312 312 311 311 308 306 303 300 301 300 299 298 297
290 289 289 288 287 288 288 290 291 292 293 294 295 295 297 297 298 299 298 299 299 300 304 303 306 303 303 303 301 304 303 302 304 307 301 298 299 299 297 294 293 293 292
288 289 288 287 287 288 288 288 290 291 291 291 291 292 293 293 293 293 295 295 297 298 299 298 300 298 300 301 299 299 300 301 297 299 297 296 293 290 290 290 289 289 289

GFSMW_850_thetae_126.txt.gz
Theta_e
316 318 319 320 320 321 321 320 319 321 330 338 337 339 336 335 335 334 335 338 338 335 334 332 332 332 331 330 330 330 327 326 326 326 326 326 326 325 324 322 322 321 318
313 314 316 318 322 322 321 321 319 319 323 332 330 336 334 333 335 337 336 338 338 336 334 333 332 332 331 331 331 330 328 327 326 326 325 325 324 325 323 322 321 320 320
312 314 314 314 319 322 322 321 321 320 320 326 335 339 337 337 338 339 338 336 335 334 334 335 335 333 332 331 331 331 329 326 326 325 326 325 324 324 322 322 321 321 320
311 312 313 314 315 321 323 322 321 321 322 328 333 335 334 333 332 334 336 335 334 333 333 334 334 335 332 333 331 330 329 328 327 325 325 325 325 322 321 322 321 321 320
311 312 313 313 314 318 323 323 322 322 325 328 331 333 335 330 332 334 336 337 334 333 333 332 332 331 331 331 330 328 329 329 329 327 326 325 325 323 322 321 321 320 320
311 312 312 317 317 314 321 322 323 325 326 329 334 332 331 331 334 336 337 337 334 333 332 331 331 330 329 329 328 329 327 328 327 327 326 325 324 323 322 321 321 321 320
311 315 316 315 316 315 317 326 327 327 333 336 334 331 331 332 333 335 337 334 332 331 330 330 330 329 328 327 327 327 328 326 327 327 326 326 325 323 322 320 320 320 321
324 327 327 329 329 329 328 328 328 330 334 334 332 333 335 336 336 337 337 333 332 331 330 330 329 328 327 326 326 327 327 327 326 327 327 327 327 325 322 321 321 319 319
326 328 329 330 330 332 332 332 332 333 334 335 337 337 335 336 335 339 337 334 331 332 331 329 328 326 326 325 325 326 326 326 326 326 327 326 327 325 322 321 321 320 319
324 325 326 327 327 326 327 327 328 328 332 334 335 336 336 334 334 335 334 334 332 331 330 328 327 326 325 326 325 325 325 326 326 326 326 326 325 324 323 321 320 320 320
318 320 321 322 322 322 321 322 322 323 326 331 333 335 334 333 333 333 334 335 333 330 330 328 327 325 326 326 325 325 325 325 326 326 326 324 325 323 324 321 321 320 320
316 318 319 320 320 320 320 321 321 322 324 325 327 330 331 334 333 334 333 332 331 330 328 327 326 325 325 326 324 325 325 326 324 325 326 325 324 324 324 323 322 322 321
315 317 318 316 319 319 319 320 321 321 322 323 324 326 327 331 330 331 332 331 329 328 326 325 325 324 325 326 325 323 324 324 323 323 325 325 325 325 323 323 321 322 322
313 314 313 313 315 316 317 319 320 320 322 324 324 325 326 327 329 327 329 328 328 326 326 324 323 323 322 322 321 321 321 322 322 323 323 323 324 324 324 324 320 321 322
312 311 310 311 310 311 313 315 317 318 320 322 323 324 324 326 326 326 328 327 326 324 323 323 323 322 321 320 319 320 320 320 319 320 320 321 324 323 324 323 320 320 321
304 308 307 307 306 306 310 311 312 314 316 318 321 322 322 323 324 325 325 325 324 322 322 322 321 321 320 320 319 319 320 318 319 319 320 321 321 323 323 322 320 321 320
304 302 303 304 303 303 303 305 310 312 313 314 316 318 320 321 322 322 323 324 324 324 322 321 320 321 320 320 319 319 320 319 319 320 320 321 322 322 323 323 322 318 318
303 302 301 301 300 299 300 301 304 308 311 312 312 313 315 318 320 322 323 323 323 325 323 321 320 321 321 320 319 320 320 319 319 320 320 321 321 321 321 320 321 319 319
298 298 299 298 298 298 298 299 301 303 305 307 310 311 311 313 314 317 320 321 323 324 323 322 321 320 320 320 320 320 320 320 319 318 319 317 319 321 322 321 320 319 318
295 296 296 296 296 295 296 298 298 299 299 300 302 306 308 311 312 312 316 318 321 322 322 322 322 321 320 319 320 320 319 319 319 317 317 316 315 317 318 320 319 319 318
293 294 293 293 292 293 294 293 294 295 295 297 300 301 304 306 309 309 311 313 317 318 321 321 322 322 321 321 319 319 319 318 318 318 314 316 318 315 318 315 317 316 316
293 293 293 292 292 292 292 292 293 294 295 296 297 299 301 302 305 307 308 311 313 316 319 320 321 321 321 320 319 319 320 319 317 317 317 316 315 315 316 314 314 314 314
292 291 291 291 290 289 290 291 292 294 296 297 298 299 301 301 302 304 307 309 310 309 311 314 315 317 320 319 319 320 319 318 317 316 316 316 315 314 313 312 310 310 308
290 289 289 287 287 288 289 290 292 294 296 297 298 298 299 300 302 303 304 305 305 304 306 307 305 306 312 311 315 316 316 317 315 314 313 312 312 310 307 304 303 302 302
288 287 285 285 286 287 288 290 291 292 294 295 295 295 296 297 297 299 300 301 300 300 301 303 304 302 304 306 307 306 303 303 306 305 302 301 300 301 300 299 299 298 296
288 289 287 287 286 286 287 288 290 291 292 292 292 293 293 293 293 292 293 293 295 296 299 300 300 301 303 302 305 303 300 299 302 301 302 300 297 299 296 294 293 293 293